ECMWFFLT2_sfc_temp_006.txt.gz
Temp
67 67 67 67 68 68 67 67 68 68 68 69 69 68 69 69 67 66 66 65 65 66 65 64 64 64 65 64 65 65 65 65 64 64 64 63 64 64 64 63 63 60 59 58 57 54 51 50 48 48 50 53
65 66 66 66 67 67 67 67 67 67 68 69 69 68 68 67 65 65 65 65 65 65 65 64 64 64 64 64 64 64 64 64 64 63 63 63 63 63 63 62 62 60 59 58 57 53 51 49 48 47 49 53
68 64 65 65 65 66 66 66 66 67 67 67 68 67 66 65 63 64 64 64 64 65 65 64 63 63 64 64 64 64 64 63 63 63 62 63 62 62 62 61 59 58 58 57 55 53 50 48 48 47 50 52
70 65 63 64 64 64 64 65 65 65 66 66 64 64 64 62 64 63 65 63 65 64 64 63 63 63 63 64 64 63 63 63 63 62 62 62 62 61 60 60 58 57 56 55 54 51 49 48 47 52 54 50
69 69 62 64 63 63 63 64 64 64 64 64 63 63 61 60 66 67 66 65 66 63 65 60 59 62 63 63 64 63 63 62 62 62 62 62 61 60 59 58 57 56 55 54 52 50 49 47 52 52 51 51
66 68 65 68 68 67 66 64 63 65 67 63 68 62 65 67 67 67 66 66 62 65 64 61 58 60 61 62 63 63 62 62 62 62 61 61 60 59 58 56 56 55 53 52 50 49 47 51 52 49 49 49
65 67 68 68 68 67 65 66 66 67 67 68 68 68 67 67 68 67 67 66 63 63 60 62 57 58 60 61 62 61 62 61 61 61 61 61 60 59 57 56 56 55 53 51 48 47 49 51 51 50 49 49
66 67 68 68 68 68 68 67 66 67 67 67 68 68 68 68 67 66 67 60 56 57 62 61 57 58 59 59 60 59 61 61 61 61 60 60 59 56 53 54 54 55 54 52 51 51 52 51 50 49 50 50
65 66 67 67 68 67 68 67 67 67 67 66 66 66 67 67 66 64 65 63 62 63 63 61 60 60 60 61 60 56 60 61 61 61 60 60 56 54 54 53 53 53 53 52 52 52 53 51 49 49 49 50
65 64 65 66 67 66 67 66 66 66 66 65 65 65 65 65 63 63 63 62 61 61 62 61 60 60 60 60 59 59 59 60 60 59 58 55 55 55 54 53 54 53 52 53 53 52 51 51 49 50 49 50
65 64 65 66 66 65 65 66 65 65 65 65 65 64 64 63 63 62 62 61 60 60 60 60 60 60 60 58 58 60 60 59 59 59 58 56 54 54 54 53 53 51 51 51 51 51 50 50 49 50 49 49
63 64 64 64 64 64 64 64 64 65 65 65 64 63 64 63 63 62 61 60 60 59 59 60 59 60 59 58 59 59 59 58 59 58 58 57 54 53 53 52 52 51 51 49 49 50 49 49 48 48 49 49
61 63 63 63 63 63 62 64 64 65 65 64 64 63 62 63 62 62 61 60 60 59 58 59 58 58 58 58 58 57 57 57 57 57 56 55 54 53 51 51 51 51 50 50 50 49 48 48 48 47 48 48
61 62 61 61 62 63 63 63 64 64 64 64 63 62 61 61 62 62 61 60 60 58 57 57 56 57 57 57 57 56 56 57 56 56 56 55 54 53 51 51 51 51 50 49 50 49 49 48 48 47 47 46
62 62 61 61 62 62 61 62 63 63 63 63 63 63 61 61 61 62 61 61 60 59 58 56 55 56 56 56 56 56 56 57 56 56 55 54 53 53 52 52 52 50 50 49 49 48 48 48 48 48 48 47
61 61 61 61 61 61 61 61 61 61 62 61 62 62 60 60 60 61 61 60 59 58 58 57 55 55 55 55 56 55 56 56 56 56 55 55 54 53 53 52 51 51 50 49 49 48 47 48 47 47 47 46
60 61 61 60 60 61 60 60 60 60 60 60 61 60 59 59 60 60 60 60 59 57 58 57 54 54 54 55 55 55 56 55 55 54 54 53 52 52 52 51 50 49 50 49 48 48 47 47 46 47 47 46
57 58 59 60 61 61 60 60 59 59 60 60 60 59 58 57 58 58 60 60 59 58 58 57 55 54 54 55 55 54 54 53 53 53 52 51 50 49 50 49 49 48 48 49 49 47 47 47 46 46 45 45
55 56 57 58 59 60 59 59 59 59 60 59 59 59 59 57 56 57 57 58 58 57 57 57 55 54 55 55 53 53 53 53 53 53 51 50 49 49 49 49 49 48 48 48 47 47 47 46 46 46 45 45
56 56 56 56 55 57 58 58 58 58 59 59 59 59 58 57 56 56 56 56 56 56 56 56 56 55 55 53 53 53 53 53 52 52 51 51 50 48 47 48 48 48 48 48 47 47 47 46 46 45 45 44
54 56 56 56 56 55 55 56 56 57 58 58 58 58 58 57 56 55 55 56 55 55 55 55 55 56 54 52 53 52 52 51 52 51 49 50 50 51 48 48 47 47 48 48 47 47 46 46 45 45 45 44
53 54 56 56 55 55 55 55 55 56 56 56 57 57 57 56 56 55 55 55 55 54 55 55 55 55 53 52 52 52 51 51 52 52 51 49 49 50 50 48 47 46 47 47 46 46 45 45 44 45 45 45
51 52 54 55 56 56 55 55 54 54 54 54 55 55 55 56 55 55 54 54 54 54 54 54 54 54 52 51 51 51 50 50 50 50 50 50 48 49 50 49 49 48 47 45 44 44 44 44 44 45 45 44
50 49 48 49 52 53 54 54 52 52 52 52 52 53 53 54 53 54 54 53 54 53 53 53 53 52 51 51 51 50 49 49 49 48 48 49 48 47 48 50 50 49 47 45 44 43 44 44 44 43 43 43
48 47 46 45 47 48 52 52 53 53 52 51 51 51 51 50 51 51 52 52 53 52 51 52 53 52 51 51 50 50 49 50 49 49 49 49 49 46 45 46 48 48 47 44 42 43 42 43 43 43 42 42
48 48 47 46 44 44 45 49 50 51 52 51 51 51 51 51 51 51 51 51 52 52 51 51 51 51 50 50 49 50 50 50 48 49 49 49 47 48 45 44 46 45 45 42 41 40 40 41 43 43 42 42
47 48 48 48 47 47 46 46 47 47 47 48 48 49 49 50 50 51 50 50 50 50 51 51 50 50 50 49 49 48 48 48 48 48 47 48 46 44 46 46 46 44 46 43 44 46 44 41 39 39 38 40
49 49 49 49 49 49 48 46 46 44 43 42 43 43 45 45 45 45 47 48 49 50 50 50 50 50 49 49 49 48 47 47 47 47 47 47 47 47 43 44 43 44 45 47 44 37 39 42 43 40 37 37
47 47 47 48 48 49 48 49 49 49 49 48 48 47 47 47 47 45 45 47 48 50 49 49 49 49 49 49 49 48 48 47 47 47 47 47 47 47 45 43 42 42 44 46 49 46 42 39 38 39 45 40
46 45 44 44 43 42 43 43 44 44 44 46 47 47 50 50 50 48 48 48 49 49 49 49 49 48 48 48 48 47 48 48 48 47 47 47 47 47 48 47 43 40 42 44 46 48 50 49 42 39 44 42
46 45 45 44 43 43 42 42 43 47 47 46 48 48 48 49 51 50 49 48 48 49 49 49 48 47 47 47 48 48 47 47 47 47 47 48 47 48 48 48 44 41 39 41 43 45 48 45 43 47 44 38

ECMWFFLT2_sfc_temp_009.txt.gz
Temp
68 68 68 68 69 69 69 69 69 70 70 70 70 71 70 69 69 68 68 68 68 67 67 66 66 66 67 67 67 68 68 67 67 66 66 66 66 67 67 66 64 62 61 61 59 57 54 51 50 50 51 56
66 66 67 67 68 68 68 68 69 69 69 70 69 70 69 68 67 67 67 67 67 67 66 66 65 65 66 66 67 67 67 67 67 66 66 66 66 66 66 65 64 62 61 60 59 56 54 51 50 50 50 56
69 64 65 66 66 67 66 67 68 68 69 69 68 68 67 66 64 65 66 66 66 67 67 65 65 65 66 66 66 66 67 67 67 66 66 65 65 65 65 65 62 61 61 61 59 57 54 50 49 50 51 55
71 66 64 65 65 65 65 65 66 67 67 67 66 65 65 63 64 64 66 64 66 65 66 65 65 64 66 66 66 66 66 66 65 65 64 64 64 64 64 64 63 61 60 61 60 57 54 51 50 51 55 54
72 70 63 64 64 63 63 64 64 65 65 65 64 62 63 61 67 67 67 66 67 65 66 62 61 63 65 66 65 65 65 65 65 64 64 64 63 63 63 62 59 59 59 59 58 56 53 50 51 54 55 54
71 71 66 69 69 68 66 64 64 66 67 64 68 63 65 67 68 68 67 67 63 66 65 62 59 61 63 66 65 64 64 64 64 64 64 63 63 62 62 60 59 57 57 57 56 56 52 50 53 54 52 52
70 71 71 69 69 68 66 66 66 67 67 68 67 68 68 67 69 68 69 67 65 64 62 64 59 60 63 66 66 64 63 64 64 64 64 63 62 62 61 60 57 56 53 54 55 54 50 50 52 52 51 51
70 70 71 71 70 70 69 68 67 67 68 68 68 68 68 68 69 68 69 63 59 59 64 63 58 59 61 61 63 62 63 62 62 62 63 62 62 61 59 57 57 57 54 54 53 51 50 51 52 50 50 50
69 70 70 70 71 70 70 68 68 68 68 68 68 68 68 68 69 68 68 67 65 65 65 64 62 61 61 62 62 60 62 62 61 61 60 60 60 58 58 56 56 56 54 53 51 50 51 52 51 50 51 52
68 68 69 69 70 70 70 70 69 69 68 68 68 68 69 69 67 67 67 67 66 64 64 63 61 61 61 61 61 62 61 61 61 60 59 59 59 58 57 57 55 55 54 52 51 52 52 52 51 51 51 52
67 67 68 69 69 69 69 69 69 68 69 68 68 67 68 68 68 67 66 66 65 63 64 63 62 61 61 60 60 62 61 59 60 61 60 59 58 56 56 55 54 54 54 53 52 52 52 52 51 51 51 51
66 66 66 67 68 68 68 67 68 68 69 68 68 68 68 68 69 68 67 65 64 63 63 63 62 61 60 60 60 62 61 59 60 60 60 58 56 56 55 55 54 54 54 53 53 52 51 50 51 50 50 50
65 65 65 66 66 66 66 68 68 67 68 68 68 68 67 68 67 68 67 66 65 63 62 63 62 61 61 60 60 61 60 60 59 59 59 58 56 55 54 54 53 52 52 52 51 51 50 50 50 49 50 49
63 64 64 64 65 66 66 66 67 67 68 68 68 68 68 67 67 67 65 65 65 63 62 62 61 61 60 60 60 60 59 60 59 59 59 58 56 55 54 53 53 52 51 51 51 51 50 49 50 49 49 48
61 63 63 63 64 65 65 65 66 66 67 67 67 68 68 66 66 66 66 65 64 64 62 61 61 60 60 59 59 60 59 60 59 59 59 57 56 54 53 53 54 53 52 50 51 50 50 49 50 50 49 49
60 60 61 61 62 63 64 64 65 65 65 65 66 67 66 66 65 65 65 65 64 63 62 61 61 60 59 59 59 60 59 59 59 58 58 57 56 55 54 54 54 52 52 50 51 50 49 50 50 50 49 49
60 60 60 60 61 62 62 63 63 63 63 64 65 65 65 65 65 65 64 65 64 63 63 61 60 59 59 59 59 59 58 58 58 58 57 56 56 55 54 54 53 51 53 50 50 50 49 50 49 50 50 48
58 59 60 60 60 61 61 62 62 62 63 63 64 64 64 64 64 63 64 64 63 63 62 61 60 59 58 59 59 58 57 57 57 57 56 55 54 53 53 52 52 51 50 51 50 49 49 49 49 49 49 48
57 58 58 59 59 59 59 59 60 61 62 62 63 64 64 63 62 62 62 63 63 62 62 61 60 59 59 59 58 57 57 57 57 56 55 55 53 53 53 53 53 51 50 51 50 49 49 49 49 48 48 48
56 57 58 57 57 59 58 58 58 59 60 61 62 62 62 63 62 61 61 61 61 61 61 61 60 60 60 57 57 56 56 56 55 55 54 54 53 51 51 52 51 52 50 51 50 50 49 49 49 47 47 47
55 55 55 57 57 58 59 58 58 59 59 59 59 60 61 61 61 61 60 60 61 60 60 60 60 61 60 58 56 55 55 55 55 54 52 53 53 52 50 51 50 50 50 50 50 50 49 49 48 48 47 47
54 55 55 55 55 56 57 59 59 58 58 58 58 58 58 59 60 60 60 60 59 59 59 59 59 60 60 58 55 55 55 54 55 54 53 52 52 53 51 51 50 50 50 49 49 49 48 48 48 48 48 48
54 54 55 55 54 54 55 55 56 57 57 57 58 57 57 57 56 57 58 58 58 57 58 58 58 58 59 57 55 55 55 53 54 54 53 52 52 52 53 52 51 51 49 48 47 47 48 48 48 48 48 48
52 52 51 50 52 52 52 53 53 53 55 57 56 56 55 55 54 55 55 56 56 56 56 57 57 57 57 56 54 54 54 52 52 52 52 51 51 51 51 53 52 52 50 49 48 47 48 48 47 47 47 47
49 48 48 49 49 49 51 51 51 52 53 53 54 54 54 54 53 52 52 53 54 54 54 55 56 56 55 56 54 54 53 53 53 53 53 52 52 50 49 50 52 52 51 47 45 46 46 46 47 46 46 45
49 49 48 47 47 48 49 50 50 49 51 50 50 50 50 50 53 53 52 51 51 52 52 52 53 53 53 55 54 53 54 53 52 52 52 52 50 50 49 49 51 50 50 45 43 41 41 43 45 45 45 44
48 49 48 47 47 48 48 51 52 51 50 50 48 49 49 49 47 47 49 50 50 49 49 48 51 51 51 52 53 52 51 52 52 52 52 51 50 48 49 50 50 50 50 45 47 46 43 39 38 42 42 44
50 50 50 49 48 48 48 48 50 51 52 49 47 45 46 47 47 45 44 45 46 49 49 48 50 51 50 51 52 52 51 50 50 51 51 51 51 50 46 48 48 50 50 50 47 40 41 43 42 39 38 39
51 51 49 48 47 46 45 46 46 47 48 51 48 46 46 46 46 44 44 45 45 45 45 46 47 46 49 50 51 50 48 49 50 50 51 50 50 50 48 46 47 48 49 49 52 47 43 40 41 41 45 40
50 49 47 46 44 42 41 40 41 41 43 46 46 47 51 50 48 46 44 42 42 44 45 45 45 45 45 47 48 49 48 49 49 49 50 50 50 49 50 48 47 44 47 48 50 51 52 50 43 40 46 40
49 48 48 47 44 43 42 40 40 43 45 44 46 48 48 48 50 49 46 45 44 42 42 42 42 42 42 44 46 47 47 47 47 49 49 50 49 49 50 50 46 45 43 46 47 48 50 51 52 49 47 39

ECMWFFLT2_sfc_temp_012.txt.gz
Temp
68 68 68 69 70 70 70 70 70 70 71 71 71 72 71 71 70 70 70 70 69 69 69 68 68 68 68 69 69 69 69 69 68 68 68 68 67 68 68 67 67 65 63 61 61 56 54 53 52 52 52 45
65 66 67 67 68 68 68 69 69 69 70 71 71 71 70 69 67 68 69 68 69 69 68 68 68 67 69 68 69 69 69 69 68 68 68 68 67 67 67 67 65 63 62 61 59 55 54 53 52 51 52 44
63 64 65 65 66 67 67 67 68 69 69 69 69 69 68 67 65 65 67 67 68 68 68 67 66 67 68 68 68 68 69 68 68 68 68 67 67 67 67 66 63 63 62 60 59 56 54 52 51 51 50 44
63 64 64 64 65 65 65 65 66 67 67 67 65 65 64 62 62 62 64 66 65 67 67 65 64 66 67 67 68 68 68 68 68 68 67 67 67 67 67 65 63 62 61 60 58 56 54 52 51 45 43 45
65 65 63 63 63 64 64 64 64 65 65 65 64 61 61 60 60 59 59 62 61 65 63 61 62 66 67 67 67 67 67 68 68 67 67 67 67 67 66 64 63 61 61 61 59 55 53 52 44 42 43 44
64 63 63 63 62 61 61 62 62 61 60 60 60 61 61 60 61 61 61 59 60 59 60 58 61 62 65 66 67 67 67 66 67 67 67 67 66 66 65 61 54 54 60 61 59 55 53 47 41 42 40 42
63 63 61 62 63 62 63 60 59 59 60 59 59 60 60 60 61 62 62 60 59 58 59 59 59 61 64 65 67 66 66 66 66 66 66 65 65 64 64 54 46 44 43 47 59 55 47 39 39 39 39 40
62 61 61 61 61 62 62 62 61 60 59 60 60 61 60 59 61 62 63 61 59 59 59 60 58 60 62 62 64 64 63 64 64 65 65 64 63 62 57 49 46 45 41 44 42 40 39 37 38 38 37 39
58 61 60 60 60 61 60 60 62 61 61 59 60 60 61 60 61 61 60 60 60 59 59 56 54 56 58 58 55 60 55 55 58 62 58 59 60 55 51 48 46 44 43 44 41 39 37 36 37 36 38 35
58 60 59 60 61 60 62 61 60 61 61 61 60 60 61 61 61 62 61 60 58 57 58 57 52 53 53 54 53 55 51 48 50 51 47 51 53 47 46 45 43 44 44 41 37 38 37 39 38 38 34 36
58 55 57 58 59 59 59 59 59 60 61 62 61 60 60 60 60 60 61 61 58 56 58 58 54 53 52 53 53 53 51 47 47 47 45 44 46 46 44 43 41 44 43 42 39 38 37 37 39 38 36 36
57 57 58 57 58 59 59 59 58 58 58 61 62 61 61 61 60 60 60 60 60 58 58 59 56 54 50 49 50 53 50 46 44 46 46 46 46 44 44 43 42 41 41 42 42 38 39 38 38 39 36 40
55 56 57 57 56 57 59 58 58 57 59 60 59 61 61 61 61 60 61 60 60 58 58 58 55 53 54 50 49 51 48 47 44 45 47 47 45 45 45 43 42 41 41 42 41 40 39 38 38 39 38 39
53 54 54 55 56 56 57 57 58 58 57 57 59 57 58 60 58 61 59 59 60 59 57 57 53 55 53 52 49 50 47 45 45 44 44 46 44 45 45 42 42 41 41 41 40 40 39 38 39 38 36 37
53 54 53 53 54 55 56 56 57 58 58 58 58 59 59 58 59 58 58 58 57 54 56 56 54 54 52 48 48 52 47 47 46 43 43 46 46 46 44 43 42 41 40 40 39 40 38 38 39 39 38 36
51 52 52 52 52 53 54 55 56 56 57 57 58 58 57 58 58 59 56 56 57 57 57 57 57 54 50 52 48 53 46 45 46 44 44 42 44 43 43 41 40 41 40 39 39 39 38 38 38 36 37 36
50 50 51 52 52 52 53 53 54 54 55 56 57 58 58 57 57 59 57 56 57 57 55 57 57 54 53 52 51 50 47 46 46 45 43 43 44 42 41 40 40 42 40 40 39 39 39 38 38 37 37 36
49 49 50 50 51 52 51 50 51 52 53 54 55 56 57 56 56 56 57 57 56 55 53 55 56 55 52 51 50 49 47 45 44 44 43 42 43 44 43 42 41 41 39 39 39 38 39 38 38 37 37 36
49 49 48 48 49 50 50 51 50 50 52 51 53 55 55 56 56 56 56 57 57 57 56 54 52 52 54 50 49 45 45 46 44 45 44 43 43 42 42 42 41 42 41 39 40 39 39 38 37 37 37 37
49 49 48 48 49 49 49 50 50 48 50 51 50 52 53 54 55 56 56 55 55 56 56 56 53 53 52 47 46 44 43 45 44 45 44 43 44 42 41 42 41 40 41 39 39 38 38 37 38 36 36 37
46 48 48 49 49 47 47 48 49 49 50 51 51 49 49 52 53 54 55 55 55 55 56 55 55 52 53 50 46 44 44 46 45 45 46 43 44 44 43 42 42 40 41 40 39 38 37 38 38 37 36 36
47 46 48 46 47 47 47 48 48 48 49 49 49 48 48 49 50 51 52 53 54 55 56 56 56 56 53 50 47 45 45 46 46 45 46 44 43 44 43 42 42 40 40 40 38 38 38 38 37 36 36 37
45 45 46 44 47 46 47 47 45 46 46 48 50 50 49 48 49 49 49 50 52 52 53 54 55 55 55 48 45 46 45 45 45 45 44 44 42 43 44 44 43 42 40 40 39 38 38 38 37 36 36 37
41 41 41 41 42 43 44 46 45 46 44 47 49 49 48 48 48 49 49 49 50 50 51 51 53 54 50 47 45 45 44 44 45 44 43 42 42 42 41 41 40 39 39 37 36 37 37 37 36 35 37 36
40 39 38 37 40 40 42 43 45 46 46 45 44 45 46 46 47 46 47 47 48 48 48 49 50 51 45 46 45 45 46 45 45 45 45 45 44 42 41 40 40 39 40 37 34 33 35 35 35 38 37 35
42 41 39 40 37 39 39 41 41 42 45 45 47 44 43 46 47 46 44 44 45 45 45 45 45 44 40 39 42 43 45 45 45 45 45 44 42 42 43 41 42 40 41 36 36 34 32 32 33 35 35 35
42 43 43 43 41 40 38 40 42 43 44 45 45 46 44 43 43 44 44 44 43 43 43 43 43 43 39 39 41 41 40 43 44 45 45 45 44 41 41 42 41 41 44 38 37 36 34 29 31 33 33 34
45 45 45 45 44 43 42 40 41 41 43 43 44 44 45 42 40 41 42 43 43 42 41 42 42 43 39 39 40 39 40 41 43 43 44 45 45 44 40 41 40 44 43 41 38 32 34 32 31 28 30 33
44 44 43 42 40 40 38 35 34 35 38 41 42 43 41 42 43 42 40 41 42 42 41 41 41 40 38 37 38 38 38 39 42 44 43 44 44 44 43 40 40 42 44 42 45 40 35 30 31 32 31 32
45 43 42 41 40 38 37 37 35 36 38 40 40 41 43 44 45 44 43 41 40 41 41 39 40 39 39 36 36 37 37 38 38 39 40 43 44 44 44 42 42 40 43 44 43 44 46 44 34 33 31 32
46 44 44 42 40 40 39 38 38 40 42 42 43 42 42 42 43 44 44 44 42 40 40 40 39 39 38 36 36 37 36 36 36 39 37 37 37 40 43 42 41 41 41 42 43 43 42 39 38 40 35 27

ECMWFFLT2_sfc_temp_015.txt.gz
Temp
66 67 67 68 70 70 70 71 71 71 71 72 72 72 72 72 71 70 70 71 71 71 70 70 69 69 69 69 69 70 70 70 70 70 70 69 69 69 69 68 67 67 64 62 60 58 57 56 55 54 53 41
64 65 66 66 67 67 67 68 69 70 71 71 71 71 70 69 67 68 69 69 70 70 70 69 69 69 69 69 69 69 70 70 70 70 69 69 69 69 68 68 67 67 64 61 60 58 57 56 55 54 54 39
60 64 64 64 64 65 66 66 67 69 69 69 68 68 67 66 65 65 66 67 69 70 70 68 68 69 69 69 69 69 70 70 70 69 69 69 69 68 68 69 68 66 63 60 59 58 56 55 55 55 46 39
59 62 64 64 64 64 65 65 65 66 67 67 65 65 63 62 62 63 64 65 65 68 68 66 65 67 69 69 70 70 69 70 70 69 69 68 69 68 68 68 67 63 62 60 59 57 56 55 54 44 37 39
60 60 61 62 63 64 63 63 63 63 64 64 63 62 60 59 58 57 60 64 62 66 64 62 62 66 68 68 69 69 68 69 69 69 69 68 68 68 67 65 63 62 61 59 58 56 55 54 44 41 40 39
59 59 61 60 59 58 60 62 62 60 58 59 56 59 58 55 55 56 56 58 60 61 61 60 60 63 66 67 68 68 68 68 69 69 68 68 68 67 66 62 58 58 60 59 57 55 54 46 40 39 37 35
57 59 59 60 59 58 60 58 57 56 56 55 55 55 54 55 55 54 55 57 58 58 59 59 59 61 65 67 67 67 67 66 68 68 68 68 67 67 63 57 49 50 48 52 55 54 47 38 38 37 35 36
57 57 57 57 57 57 57 57 57 56 56 55 55 56 54 54 54 55 54 58 58 58 59 59 59 61 63 63 65 64 64 64 65 67 68 67 66 64 53 49 47 46 43 45 44 41 39 39 37 38 37 36
55 56 56 56 56 57 57 56 56 57 57 56 56 56 56 54 54 55 56 54 55 56 56 56 56 56 57 57 58 61 56 57 58 61 58 61 61 51 49 46 45 44 42 40 39 37 36 38 37 37 38 32
53 54 54 54 55 56 57 56 55 56 57 57 57 56 56 55 54 54 55 55 54 54 55 54 53 53 53 53 54 57 53 47 51 52 47 52 52 45 45 45 42 43 43 37 36 36 36 38 38 36 33 33
52 52 52 52 54 53 53 54 54 54 55 56 55 55 55 56 53 53 54 54 53 53 53 54 53 52 51 51 52 54 52 48 47 46 44 44 47 44 42 41 41 44 42 40 37 36 36 37 37 36 34 33
51 51 51 52 52 53 53 53 52 53 54 55 55 55 55 54 55 54 53 54 54 54 52 54 53 52 50 50 51 52 51 47 42 41 41 45 46 41 41 41 40 41 40 41 40 37 36 36 36 36 34 36
48 50 50 50 51 51 53 52 52 52 53 53 53 55 55 54 53 54 54 55 55 53 54 54 53 51 52 50 51 52 47 47 44 41 42 42 43 44 43 42 40 39 39 40 40 39 37 36 35 35 36 36
47 48 48 49 49 50 51 51 51 52 52 52 52 51 54 54 54 53 53 53 52 51 53 54 53 52 52 51 51 51 49 45 45 43 40 40 41 43 43 41 41 40 39 38 38 39 38 36 36 35 35 35
47 47 47 48 48 48 49 50 51 51 51 52 52 52 52 52 54 54 54 53 52 51 51 52 53 53 52 51 49 52 50 43 44 42 42 43 41 43 42 40 38 39 39 38 37 39 38 37 35 36 35 35
46 46 45 46 47 47 48 49 49 49 50 50 51 52 51 50 51 52 53 54 53 53 52 51 51 52 51 52 50 52 49 45 43 43 42 42 42 41 41 39 38 38 38 38 38 38 38 37 37 36 36 36
45 46 46 45 45 46 47 47 47 48 49 49 50 51 51 51 50 51 53 54 54 53 52 52 51 49 49 51 51 51 48 46 43 42 41 41 41 40 40 38 37 39 38 38 37 37 37 36 37 37 36 36
45 45 46 46 45 46 46 46 46 47 47 49 49 49 49 50 51 51 51 53 53 52 52 52 51 50 48 48 48 50 48 45 43 42 41 41 40 41 40 39 38 37 37 35 35 36 36 36 37 36 36 35
45 45 45 45 44 45 45 45 45 46 46 47 48 48 48 49 49 50 52 52 52 51 51 51 51 50 50 48 47 47 47 47 44 44 43 41 40 39 38 39 39 39 39 37 36 36 36 36 36 35 36 35
45 44 44 44 45 44 44 44 44 45 45 45 45 46 47 48 49 50 50 50 51 51 51 51 51 51 51 47 44 43 42 44 45 45 44 41 42 39 38 38 37 38 39 38 38 36 35 35 36 35 35 34
41 43 44 44 43 43 43 43 43 44 45 45 44 45 45 46 47 47 47 48 49 50 51 50 51 50 50 48 42 42 42 43 46 46 45 41 42 44 41 39 39 37 39 38 38 36 35 35 35 35 35 35
42 43 43 41 41 42 43 43 43 43 43 43 45 45 45 45 44 45 46 47 48 48 49 50 50 51 49 46 41 41 40 42 45 46 47 43 42 43 43 40 39 38 38 38 37 36 36 35 35 36 35 35
41 41 41 38 41 41 41 41 41 42 43 43 44 44 45 44 43 44 45 46 47 46 47 48 49 50 50 45 41 41 40 40 41 44 46 46 42 42 44 43 42 41 40 39 37 37 36 36 35 35 33 35
38 38 38 39 39 38 39 41 40 41 40 42 42 43 43 43 43 44 45 45 46 46 46 46 46 47 45 41 39 39 40 39 39 40 44 45 44 41 41 42 42 41 38 36 34 35 33 33 34 32 33 34
37 36 36 34 37 38 39 40 41 41 41 41 40 41 42 42 43 43 44 45 45 44 44 45 45 44 40 40 38 38 40 40 40 39 40 44 46 43 41 40 39 38 39 36 33 33 32 32 31 34 34 34
40 38 39 40 39 39 37 37 37 38 39 40 42 40 41 41 42 42 43 44 43 43 43 43 43 41 39 37 38 37 37 40 40 39 39 38 39 44 44 42 40 38 40 35 36 34 31 31 32 32 33 34
40 42 43 42 42 41 38 37 38 39 39 40 39 40 40 40 40 41 41 41 40 40 41 41 41 41 38 36 37 36 36 36 36 38 38 38 37 37 42 44 41 40 44 39 39 35 34 29 31 33 32 32
43 43 44 43 42 41 39 38 39 38 38 37 37 38 40 39 38 38 39 41 41 41 39 39 39 40 36 35 36 35 36 36 36 36 36 37 37 37 38 40 39 41 43 44 39 33 35 32 31 30 30 33
41 42 42 42 41 39 37 35 33 32 34 36 38 38 37 38 39 38 39 40 41 41 39 38 38 38 37 35 35 35 35 35 36 36 37 37 37 37 36 37 39 40 42 43 45 41 32 27 31 32 35 33
41 40 39 39 38 37 37 35 32 33 35 35 35 37 40 41 41 40 39 38 38 40 39 37 37 37 37 35 36 36 35 35 34 35 36 36 37 37 38 39 40 38 41 43 43 45 45 43 36 35 31 33
40 38 39 37 36 37 36 35 35 36 37 36 38 38 40 42 44 42 40 40 39 39 38 38 38 37 36 35 35 36 35 34 35 34 35 36 36 36 37 39 38 39 39 41 41 42 44 41 35 37 34 32

ECMWFFLT2_sfc_temp_021.txt.gz
Temp
60 61 61 62 62 62 63 63 63 64 64 63 65 68 69 69 67 67 68 69 69 69 70 70 71 71 71 71 71 71 71 71 71 71 69 68 69 70 68 68 68 67 63 63 62 60 60 58 57 55 50 40
59 59 60 60 60 61 61 61 62 62 62 63 62 62 61 62 64 64 66 67 68 69 70 69 70 70 70 71 71 71 71 70 71 71 70 69 68 69 67 67 68 67 66 63 62 60 59 58 57 55 52 37
55 58 58 59 59 59 59 59 60 60 60 61 60 59 59 58 59 61 63 64 65 67 69 68 68 70 70 70 71 70 70 70 70 71 70 69 68 67 68 67 67 67 65 63 61 60 59 57 56 56 48 39
54 56 57 58 58 58 57 58 58 58 57 57 57 57 58 57 56 57 58 63 61 63 66 65 65 67 70 69 69 70 70 69 69 69 70 69 68 67 67 66 67 66 65 62 61 60 59 57 57 49 40 39
53 54 56 55 56 57 57 57 56 56 55 55 54 55 55 55 54 54 55 56 56 61 59 60 61 66 69 69 69 69 69 69 69 69 69 69 68 67 65 65 64 64 64 62 61 60 58 57 47 42 41 41
51 52 55 54 54 54 55 55 55 53 52 53 51 53 53 53 53 53 53 53 55 55 56 57 59 61 65 68 69 69 69 67 68 69 69 69 68 67 65 64 60 61 62 61 60 58 57 48 41 41 40 40
50 51 52 53 53 53 54 53 53 53 53 51 51 51 51 52 52 53 53 53 54 55 56 57 58 60 63 65 68 68 67 66 68 69 69 69 68 67 64 60 53 56 56 57 59 58 50 41 41 39 39 40
48 49 50 51 52 52 52 52 52 52 52 52 51 51 51 50 50 51 52 54 54 54 54 55 56 58 61 63 65 65 64 64 65 66 66 66 65 64 59 53 52 54 53 54 52 47 43 42 40 40 39 39
46 46 46 48 50 50 50 50 51 51 51 51 51 51 52 51 51 50 50 52 53 53 53 52 52 53 54 56 58 61 57 57 56 59 52 51 53 55 54 50 51 51 50 47 44 41 39 40 39 39 39 35
45 45 44 45 47 47 48 48 49 49 49 49 50 50 51 52 50 49 50 49 51 52 52 52 51 51 51 51 53 58 56 51 52 52 49 49 46 49 52 51 49 50 49 42 39 38 37 39 40 38 36 36
43 42 42 42 45 46 44 45 45 46 46 47 48 48 50 49 49 48 48 49 49 49 51 51 51 51 50 50 50 51 54 52 51 49 47 44 44 47 45 44 47 50 47 44 40 38 37 37 38 38 37 35
43 41 42 44 45 43 46 45 43 42 43 44 45 45 46 48 48 48 47 48 48 48 49 50 50 50 49 49 49 50 50 50 48 47 46 40 42 42 44 45 45 44 44 43 41 38 38 37 38 38 37 37
42 42 42 42 43 43 47 43 42 41 42 42 43 43 43 44 44 46 47 47 47 47 48 48 49 50 50 49 49 49 48 49 48 46 45 44 41 44 44 44 43 41 41 43 41 40 37 37 37 37 36 36
42 42 41 42 43 43 44 41 41 41 40 41 40 41 41 42 42 42 42 44 46 46 45 45 48 49 49 50 49 49 48 48 48 47 42 41 39 41 43 42 42 42 41 40 39 40 38 37 37 37 37 36
42 42 41 42 42 42 43 42 42 40 40 40 40 40 40 40 41 42 41 41 43 43 44 44 45 46 47 48 49 49 48 46 46 44 45 44 42 43 43 42 41 42 40 40 38 40 38 38 36 36 35 35
41 41 41 42 41 42 41 41 40 39 39 40 39 40 39 40 39 41 40 40 41 42 42 42 43 43 45 46 48 49 48 48 45 45 44 42 42 41 42 41 40 40 40 40 38 39 37 36 36 36 35 35
40 40 40 40 41 41 42 41 40 39 40 39 39 39 39 39 39 41 39 39 39 41 40 41 41 41 43 44 46 46 47 46 45 42 42 42 42 40 39 40 39 39 40 41 39 38 38 36 36 36 35 35
39 39 40 41 40 41 40 40 39 40 40 39 40 39 38 38 39 39 39 38 38 38 39 40 40 40 41 42 44 45 45 43 42 42 42 42 40 41 39 39 39 38 38 39 38 38 38 36 37 36 35 35
39 40 39 39 39 40 40 40 39 39 39 39 40 40 38 39 39 38 38 38 38 37 37 38 38 39 40 41 41 40 41 42 40 41 41 44 40 40 39 39 38 39 40 38 37 37 37 37 36 35 35 35
37 38 38 38 41 39 39 39 39 39 39 39 39 39 39 38 38 39 37 37 37 37 36 37 37 38 40 39 38 37 37 40 41 43 43 41 41 41 39 39 39 38 39 39 39 37 37 37 37 35 35 34
35 37 37 38 37 37 38 38 38 39 39 39 39 40 39 39 39 38 38 37 36 36 37 36 37 37 38 39 36 34 34 37 40 42 43 43 40 42 42 40 39 38 39 40 40 38 37 37 37 35 35 35
36 36 36 36 36 37 37 37 37 37 37 38 38 38 38 39 38 39 37 37 37 36 37 37 36 36 37 37 33 33 32 36 35 37 39 39 40 39 40 40 40 40 39 40 40 38 37 36 36 37 36 36
35 35 34 32 35 35 35 35 36 37 36 37 37 37 38 38 39 39 38 37 37 36 36 36 35 36 35 35 32 31 31 33 33 35 35 37 38 40 39 40 41 41 41 41 41 39 38 37 36 37 36 36
32 32 32 32 32 32 34 35 36 37 36 37 36 38 38 38 38 38 39 38 37 36 37 35 35 36 33 31 31 31 31 32 33 33 35 36 37 37 38 39 40 40 40 40 39 38 37 36 36 35 35 34
32 30 30 29 31 32 32 34 37 36 36 36 37 37 37 37 38 37 37 38 37 36 37 37 35 34 32 31 32 31 31 31 31 32 33 36 38 37 37 37 38 39 38 38 36 35 35 34 34 35 35 33
32 31 32 31 31 31 32 33 33 34 36 36 38 38 37 37 36 36 36 37 36 37 35 35 35 33 32 31 31 31 32 32 34 32 32 35 35 36 36 36 37 38 38 36 37 35 33 32 33 33 34 33
33 32 32 32 32 32 32 33 34 34 35 36 35 36 36 35 34 34 35 35 35 35 35 35 34 34 32 31 32 31 30 30 30 30 31 32 33 34 35 36 37 36 38 37 38 39 37 34 32 33 31 33
35 33 34 32 33 33 32 32 35 34 33 33 33 33 35 33 34 34 34 34 34 35 35 35 34 35 32 31 31 31 31 30 30 30 30 31 32 34 33 34 35 36 37 38 37 34 35 34 35 35 33 34
33 33 32 31 31 30 30 29 28 27 29 32 33 34 31 34 35 34 34 34 35 36 35 35 34 33 33 31 31 31 30 30 31 31 31 32 32 33 34 34 34 35 35 36 38 37 33 29 31 34 38 36
33 33 32 30 29 28 28 28 29 29 30 31 31 32 34 33 34 34 33 34 34 35 35 34 33 32 32 31 32 31 31 31 30 30 31 32 33 34 34 34 35 34 36 35 36 36 37 37 33 34 33 35
33 31 31 30 29 28 28 27 29 32 33 32 32 32 31 32 33 33 34 35 35 34 34 33 31 30 31 31 31 32 30 30 30 31 31 33 32 33 35 34 33 34 34 34 34 36 36 36 34 33 33 33

ECMWFFLT2_sfc_temp_024.txt.gz
Temp
59 59 60 60 60 60 59 60 60 60 61 61 62 61 61 61 60 60 61 62 63 64 66 66 65 66 66 68 71 72 72 71 71 71 71 69 67 67 66 66 64 65 65 64 62 61 61 60 59 57 52 43
57 58 59 59 59 59 59 59 59 59 59 59 59 59 59 58 57 58 59 60 61 62 62 64 66 65 66 66 69 71 71 71 71 71 71 70 68 65 66 65 66 64 65 64 62 61 60 60 59 57 53 42
54 57 57 57 58 58 58 58 58 58 58 57 57 57 57 56 56 56 57 58 59 60 60 59 60 63 67 66 65 67 71 71 70 70 70 70 69 68 65 66 64 65 64 64 63 61 60 59 58 58 50 42
52 55 56 56 56 56 57 57 57 57 56 55 55 55 55 54 53 54 54 56 55 58 58 57 58 61 63 65 66 66 69 70 70 70 70 70 69 68 66 64 63 63 63 64 62 61 59 58 58 50 40 40
50 53 54 53 54 55 55 55 55 55 54 54 53 53 53 53 52 51 51 52 53 55 54 55 56 59 61 63 63 65 66 66 69 70 70 69 69 68 65 63 62 60 62 63 62 60 58 58 50 44 43 42
49 49 53 52 51 51 52 53 53 52 51 52 51 53 51 51 52 51 50 50 53 52 53 53 55 56 59 61 62 62 62 64 65 69 69 69 69 68 66 63 57 58 60 61 61 59 58 51 43 43 43 43
47 48 49 50 51 50 52 51 51 51 51 50 50 50 51 51 50 50 50 51 52 52 54 53 54 55 57 58 58 59 60 60 62 64 69 69 69 67 64 58 54 51 54 58 59 58 54 44 42 41 43 43
44 45 46 47 48 50 50 50 50 50 50 50 49 49 51 50 50 49 49 51 52 52 51 51 53 54 54 54 55 55 55 57 58 59 62 67 65 62 58 53 52 54 53 53 54 51 46 43 40 40 42 43
43 43 43 44 45 46 48 48 48 49 49 49 48 49 50 49 49 48 48 48 50 50 50 49 49 50 50 49 50 53 50 51 51 52 51 55 53 49 51 50 50 52 52 50 49 46 42 41 40 40 41 38
43 43 42 42 44 45 44 44 45 46 46 47 48 48 48 49 49 48 48 48 47 48 48 49 49 49 49 48 49 50 49 49 48 48 47 47 48 47 49 50 49 51 51 46 44 43 41 41 40 39 37 37
41 40 41 41 44 43 43 44 42 42 42 43 44 46 47 47 47 47 47 47 46 46 47 47 47 47 47 48 48 49 48 48 48 47 47 45 46 45 45 46 48 50 49 48 46 43 41 40 40 39 38 37
40 39 40 42 43 41 44 43 41 41 41 41 40 42 43 46 46 46 45 46 46 45 46 46 46 46 46 46 47 49 48 47 46 46 46 45 45 44 45 45 46 47 46 47 46 43 42 41 42 41 39 38
38 39 39 39 39 39 45 41 41 40 41 40 40 39 38 40 41 41 43 44 45 44 45 45 46 45 45 45 46 47 47 47 46 46 45 45 44 45 45 44 43 44 44 45 44 43 42 42 42 41 39 38
38 38 38 38 38 39 42 39 40 40 39 39 39 40 39 38 39 38 40 40 41 41 42 43 45 45 44 45 45 46 45 45 45 44 44 45 44 43 44 41 41 41 42 41 40 42 40 40 41 40 39 38
38 38 37 38 37 38 38 38 39 39 38 38 39 40 39 38 38 41 38 38 37 37 38 39 41 43 43 43 44 45 44 44 44 44 43 44 44 44 45 41 40 40 39 41 38 41 39 39 39 39 38 37
37 37 36 37 37 37 38 38 37 37 37 39 38 39 38 38 38 40 39 37 37 37 37 37 37 38 40 42 43 44 43 43 43 43 43 43 44 44 41 39 39 38 38 41 40 40 39 39 39 39 39 38
37 37 37 37 37 37 38 37 37 36 37 37 38 38 38 38 38 40 39 38 38 39 36 36 35 36 38 39 42 42 42 42 41 40 40 41 42 40 40 39 39 41 39 42 41 38 38 38 38 38 38 37
38 37 37 39 36 37 37 35 35 36 37 36 37 37 37 36 37 39 38 38 37 36 36 36 35 35 35 37 37 40 40 38 37 38 39 40 39 40 39 39 39 38 39 39 39 39 38 37 38 37 36 36
39 39 37 35 35 36 35 36 35 35 36 35 36 37 36 37 37 38 37 37 36 37 36 36 35 34 35 36 35 34 35 37 36 37 39 41 38 40 37 38 39 39 39 39 39 39 38 36 37 36 36 35
38 37 36 36 38 36 34 34 35 34 35 35 34 35 36 36 37 37 36 36 35 35 36 34 35 35 36 34 34 33 32 34 35 37 37 37 39 39 38 37 38 38 38 39 39 39 38 37 36 36 36 35
37 37 36 36 35 34 34 34 34 34 34 35 36 35 35 36 37 36 36 36 36 34 35 35 35 34 35 34 32 32 31 31 33 34 36 36 37 39 38 37 38 38 38 39 40 39 38 38 37 36 36 36
37 37 37 35 33 35 34 34 34 33 34 34 34 34 35 35 35 37 36 36 35 34 35 35 35 35 34 34 31 31 30 31 31 31 32 33 33 35 36 35 36 37 38 39 40 38 38 38 38 37 37 37
37 37 36 35 34 33 34 35 34 34 33 33 34 34 35 35 36 36 36 36 36 34 34 34 33 34 33 33 30 29 30 29 31 33 31 32 32 34 35 35 36 37 39 41 41 40 38 38 38 38 38 38
35 35 34 34 34 33 35 35 35 36 34 34 33 35 35 35 35 35 36 35 35 34 34 33 33 33 31 31 30 30 31 31 30 31 31 31 32 32 33 34 35 36 37 38 38 39 39 37 37 37 37 37
32 31 31 32 32 32 33 33 36 35 34 34 34 34 35 35 35 35 34 35 34 33 35 34 32 32 30 30 31 30 31 32 31 31 31 30 33 33 31 32 33 35 37 36 36 37 37 36 36 37 37 35
32 31 31 30 31 33 33 32 32 31 33 33 34 34 34 35 35 34 33 34 33 34 32 32 32 30 30 30 29 31 32 32 33 33 31 30 29 31 32 30 34 35 37 34 34 35 34 34 33 34 35 34
31 32 32 31 32 33 32 33 33 33 32 33 32 32 32 33 33 33 32 32 33 33 32 32 31 31 30 30 31 30 29 30 29 30 30 30 30 29 30 32 33 33 35 34 36 36 36 33 32 33 31 33
32 32 33 32 32 32 31 30 33 33 32 30 29 29 32 32 32 33 32 32 31 33 32 31 32 32 30 30 30 29 29 29 30 30 29 29 30 31 29 30 29 34 34 35 34 32 33 34 34 33 32 32
31 31 30 31 31 31 31 31 30 29 29 30 31 31 29 32 34 32 32 32 31 32 32 31 31 30 31 29 29 29 28 28 29 30 30 30 30 30 29 29 29 31 33 34 36 35 34 31 31 33 36 35
30 29 28 27 25 25 26 25 27 26 27 29 29 30 33 33 33 32 31 31 31 31 32 29 29 28 28 29 29 29 28 29 29 29 29 30 30 30 30 30 30 28 33 33 35 36 36 35 31 33 33 35
29 27 27 26 25 25 24 24 26 29 30 30 31 32 31 32 32 31 31 32 31 30 29 29 28 28 28 28 27 30 29 28 28 29 29 30 30 30 31 30 29 29 29 31 33 35 35 36 35 33 32 31

ECMWFFLT2_sfc_temp_027.txt.gz
Temp
58 58 59 59 59 60 60 59 59 59 59 59 58 59 59 58 59 60 61 62 63 63 62 63 64 65 65 65 66 67 67 67 71 71 71 70 69 68 67 66 64 64 65 65 65 64 63 62 60 58 57 58
56 57 57 57 58 58 58 58 59 58 58 58 58 57 57 56 55 57 59 59 61 62 61 61 62 64 65 64 65 66 66 66 66 69 71 71 70 68 67 65 65 64 65 65 64 63 62 61 60 58 58 59
53 55 56 56 56 56 56 57 57 57 57 57 57 56 55 55 54 54 56 57 58 60 59 59 60 63 64 63 64 63 64 65 66 66 67 70 70 67 66 66 65 64 64 65 64 63 62 60 59 58 59 60
51 53 54 55 55 55 55 55 55 55 56 55 55 55 54 54 53 53 53 55 55 57 57 57 58 61 63 62 62 62 62 63 64 65 66 65 67 67 67 65 63 64 64 64 63 62 61 60 59 61 60 58
50 51 52 52 53 53 53 54 53 54 53 53 53 53 53 53 52 52 52 53 53 54 54 55 56 58 61 61 61 61 60 60 62 63 64 65 64 64 64 65 62 62 63 63 62 62 61 59 61 59 57 58
48 48 50 50 50 51 51 51 51 51 50 51 51 52 52 52 52 51 52 52 52 52 53 54 54 56 58 59 60 60 58 58 60 60 61 62 62 62 62 62 63 62 62 61 61 60 59 59 57 56 56 57
47 48 49 49 49 49 50 50 50 49 49 49 50 51 51 52 51 51 51 51 51 52 52 53 53 54 55 56 57 57 56 56 57 58 58 58 59 60 60 61 61 61 60 59 59 58 57 52 52 53 55 57
48 47 48 48 48 48 48 48 48 48 48 48 49 49 51 51 50 50 50 51 51 52 52 52 51 52 52 52 53 54 53 53 54 55 55 54 55 55 56 57 58 60 60 59 59 57 54 49 48 50 54 56
47 46 47 47 48 47 48 47 47 47 47 47 47 48 50 50 49 48 49 49 50 50 51 51 51 51 52 52 52 52 51 51 51 52 51 51 51 51 53 54 55 58 59 58 57 57 51 48 47 48 52 54
46 45 45 46 47 47 48 46 46 47 46 46 46 47 47 49 49 49 48 48 48 48 49 51 51 50 50 51 51 53 51 49 50 50 49 48 48 48 49 51 53 55 58 57 57 54 49 47 47 47 50 52
45 44 45 45 46 45 47 46 45 45 46 46 45 46 46 46 47 47 48 48 47 47 48 49 49 49 49 49 50 52 50 49 49 49 49 48 47 47 47 47 49 52 54 57 56 54 50 48 46 47 48 50
44 44 44 45 45 45 47 45 45 45 45 45 45 45 46 46 46 46 46 46 47 46 46 47 47 48 48 47 47 50 49 48 48 47 48 48 48 46 46 46 47 48 50 51 55 52 50 48 47 47 47 48
44 44 44 44 44 43 46 44 44 44 44 45 45 46 45 45 45 45 45 45 46 46 46 46 46 46 47 46 46 48 47 47 46 46 46 46 47 47 47 46 44 45 48 51 52 52 50 49 49 48 47 47
43 43 43 43 43 43 45 44 44 44 44 44 44 45 44 44 45 45 44 44 45 45 45 45 45 46 47 47 45 46 45 45 45 45 45 46 47 47 47 44 44 45 45 49 48 50 50 49 51 50 48 49
43 43 42 43 43 43 43 43 44 44 43 44 44 44 43 44 44 45 44 44 44 44 45 45 45 46 46 45 45 46 45 44 44 44 45 46 46 47 47 45 42 43 42 45 45 48 48 49 50 50 50 50
42 42 42 42 42 42 43 43 43 43 43 43 43 43 43 43 44 44 44 43 43 44 44 44 44 45 44 46 46 46 45 44 43 42 43 44 46 46 45 44 40 41 40 44 42 46 46 46 46 48 49 49
42 42 41 41 41 42 42 42 42 42 42 42 43 43 42 43 43 45 43 43 43 43 43 43 43 43 44 45 46 46 45 44 43 42 41 42 43 43 44 43 43 44 43 44 45 44 44 46 45 46 46 47
41 41 41 41 41 41 41 42 41 42 42 42 43 42 42 42 43 43 44 43 42 43 43 42 43 43 43 44 44 44 44 43 42 42 41 41 40 41 42 42 43 42 42 41 43 43 43 44 45 45 44 45
40 40 40 40 40 40 40 41 41 41 41 42 42 42 42 42 42 43 42 42 42 42 42 42 42 42 44 44 43 41 42 41 41 41 42 43 40 41 39 38 40 41 40 41 40 40 40 42 44 43 42 43
39 39 39 39 40 39 39 39 40 41 41 41 42 42 41 41 41 42 42 42 42 41 41 41 41 42 43 42 42 40 40 40 41 42 41 41 41 40 39 39 39 40 39 39 39 40 40 40 41 41 42 41
38 38 38 39 39 39 39 39 39 40 40 41 41 41 41 41 41 41 41 41 41 40 40 40 41 42 41 42 39 39 39 39 40 41 41 42 41 41 40 39 38 38 39 40 40 39 39 40 39 40 41 41
37 38 38 37 37 38 38 39 39 40 40 40 40 40 40 40 40 41 41 40 40 40 40 40 40 40 41 40 38 38 38 39 39 39 39 40 40 40 40 39 39 38 39 40 41 40 40 39 39 39 39 40
36 37 37 37 36 36 37 38 38 39 38 39 40 39 39 39 40 40 40 39 40 39 39 40 39 39 40 39 37 37 37 38 39 39 38 38 39 39 39 40 40 40 39 40 41 42 42 41 38 39 39 38
34 34 33 32 34 34 35 35 36 37 37 38 38 39 39 39 39 39 40 39 39 38 39 39 39 39 39 37 37 36 36 37 38 38 38 38 38 38 39 40 40 40 39 39 38 38 40 40 40 39 39 38
32 31 31 31 31 31 32 33 34 35 36 36 37 38 38 38 39 38 38 39 39 38 38 38 39 38 37 36 36 36 36 37 37 37 37 38 39 38 38 39 40 40 39 37 37 40 39 38 39 39 39 38
32 32 31 30 30 31 31 31 31 31 34 35 36 37 37 37 38 37 38 38 38 38 37 37 38 37 36 36 36 36 36 36 36 37 37 37 37 38 37 38 40 41 39 35 35 36 38 38 37 36 37 37
32 33 32 32 31 31 30 33 33 33 33 34 34 35 36 36 36 37 38 38 38 37 37 37 37 37 37 35 35 35 35 35 35 35 35 36 35 37 37 38 39 39 40 36 39 38 37 35 37 36 34 36
33 33 33 32 32 31 31 30 32 32 33 33 33 33 36 36 36 37 37 37 37 37 37 36 36 37 36 35 35 34 34 34 34 35 35 35 35 35 34 36 37 40 40 39 38 31 33 36 38 35 37 35
32 32 30 30 30 31 30 31 30 30 30 31 32 32 33 34 35 35 35 36 37 36 36 36 36 36 36 34 34 34 34 34 34 34 34 34 34 34 34 34 36 38 38 38 40 38 35 33 32 33 39 37
31 30 28 27 26 25 25 25 26 25 26 28 29 30 33 33 33 34 34 35 35 36 36 36 36 35 34 34 34 34 34 34 34 34 34 34 34 34 35 33 34 34 38 38 39 40 40 39 33 33 33 36
30 28 28 27 26 26 25 24 26 28 29 29 30 31 31 31 33 33 33 34 35 35 36 36 35 34 34 34 33 34 33 32 33 33 33 34 34 34 35 34 30 32 34 38 37 38 38 39 38 37 33 29

ECMWFFLT2_sfc_temp_033.txt.gz
Temp
56 57 57 58 58 58 58 58 58 58 58 58 58 58 57 57 56 56 57 58 58 59 59 59 61 63 64 63 64 65 65 65 65 65 65 66 66 67 67 68 66 66 65 66 66 66 65 64 63 63 62 70
55 56 56 56 56 57 57 57 57 57 57 57 57 56 55 54 53 54 55 55 56 57 57 58 58 61 62 62 62 63 64 64 64 65 64 65 65 66 66 66 66 65 65 66 66 65 64 63 62 62 61 69
56 55 55 55 55 56 55 56 56 56 56 56 55 55 54 54 53 53 54 53 54 56 56 56 56 59 60 61 61 61 62 63 63 64 64 64 64 64 64 65 66 65 65 66 66 65 64 62 61 60 63 68
57 55 55 55 55 55 55 55 55 55 55 54 54 54 54 53 53 53 52 53 52 53 53 53 54 57 60 59 60 60 60 61 62 62 62 63 63 63 64 64 64 64 64 65 65 65 63 61 60 63 66 68
57 57 55 56 55 54 54 54 54 54 54 53 53 53 53 53 53 53 52 52 51 51 50 51 52 55 57 59 59 59 59 60 61 61 61 61 61 61 62 62 61 63 64 64 64 64 62 60 62 64 66 68
56 56 57 57 56 55 55 54 54 54 53 53 53 52 52 53 53 53 52 52 51 49 50 50 51 52 54 56 58 59 59 58 60 59 60 60 60 60 60 61 66 65 62 62 62 62 60 61 63 64 66 68
55 57 57 56 56 55 55 54 54 54 54 53 53 52 53 53 53 52 52 51 50 49 50 50 51 52 53 55 56 57 58 58 58 59 59 59 58 58 57 61 65 65 63 62 60 60 62 63 63 64 65 67
55 55 56 56 55 56 56 54 54 54 54 53 53 52 53 53 52 51 52 52 51 51 50 50 51 50 51 52 53 55 56 57 58 59 59 58 57 54 54 55 59 65 63 61 59 62 63 64 65 63 62 62
54 54 54 54 55 55 55 54 54 54 54 53 53 52 53 53 52 51 52 51 51 51 51 50 50 49 50 50 51 54 53 55 56 58 57 58 56 54 53 53 54 57 62 61 59 60 64 65 65 63 61 58
53 53 52 53 53 54 54 53 54 54 53 54 53 53 52 53 53 52 52 51 50 50 50 50 51 50 49 49 50 53 52 53 55 56 57 57 57 54 55 53 52 53 55 59 58 59 62 65 64 62 61 58
52 52 52 52 52 52 52 53 53 53 53 53 54 53 52 51 51 52 52 51 50 50 51 50 50 50 50 49 50 52 51 51 53 54 55 56 57 59 55 53 52 52 53 55 59 57 61 63 63 63 62 60
51 51 51 51 51 51 51 51 52 52 53 54 54 54 54 52 52 51 51 51 51 50 51 50 50 50 50 50 50 51 51 50 52 53 54 54 56 56 58 57 54 52 51 52 54 58 60 61 61 62 63 62
50 50 49 49 50 50 50 50 50 51 52 53 54 54 53 52 51 51 51 50 51 51 50 50 50 50 50 50 50 51 50 50 50 51 52 53 54 55 56 57 56 54 53 51 51 53 58 59 61 61 62 62
48 48 47 48 48 49 50 49 49 51 52 53 53 53 53 52 51 51 50 50 51 51 50 50 50 50 51 51 51 51 50 51 50 49 49 51 52 54 55 55 57 56 55 54 51 51 52 55 60 61 61 62
47 47 47 46 47 48 47 48 49 50 51 51 52 53 51 51 51 51 50 50 50 50 50 50 50 50 50 50 52 52 50 51 49 49 48 48 50 51 52 54 55 55 55 56 54 52 50 51 53 56 59 61
45 44 45 45 46 46 46 46 47 48 49 50 51 51 50 50 50 50 50 49 49 49 49 49 50 50 50 50 51 52 52 51 49 49 50 50 50 49 51 52 53 54 54 56 57 56 52 51 51 52 53 55
43 43 44 44 44 45 45 45 46 46 48 49 49 49 49 49 49 50 49 49 48 48 48 49 49 49 50 51 52 52 51 50 50 50 50 50 51 49 49 50 51 53 54 54 55 56 55 51 50 50 50 52
43 43 43 43 43 44 43 44 44 44 46 47 48 48 48 48 48 48 49 48 47 48 48 48 48 48 50 51 51 51 51 51 51 50 49 49 50 49 48 46 48 49 50 53 53 53 55 54 53 52 50 50
43 43 43 42 42 43 42 42 42 43 43 44 45 47 47 47 47 47 47 47 47 47 47 46 47 48 49 51 51 50 50 50 51 51 50 50 48 48 48 47 47 47 48 49 49 51 53 53 52 52 49 49
43 43 43 43 42 43 42 42 41 42 42 42 43 44 44 45 45 45 45 45 46 45 46 46 46 47 49 49 49 49 49 50 49 50 50 51 50 47 46 46 45 47 45 47 48 49 50 52 52 51 51 49
43 43 42 42 43 43 42 42 42 42 42 42 42 43 43 43 43 43 44 44 45 44 45 46 46 46 47 48 48 47 48 48 49 49 49 50 51 50 47 47 46 45 45 45 47 48 49 50 51 50 49 50
43 43 42 42 42 42 42 42 43 42 42 41 41 42 41 42 41 42 43 43 43 44 44 45 45 46 46 47 46 46 47 47 48 49 49 48 50 50 49 48 47 46 47 46 45 46 47 48 50 50 50 49
43 42 43 43 42 42 42 42 43 43 42 41 41 41 41 41 41 41 41 42 42 42 43 43 44 45 46 46 45 45 45 45 46 47 47 47 47 49 49 48 48 48 48 47 46 45 46 47 48 49 51 50
42 42 41 39 40 40 40 41 41 42 41 42 41 41 41 40 40 40 41 41 41 41 42 42 43 43 44 44 44 44 43 43 45 45 45 46 46 46 47 48 48 49 48 48 47 46 47 46 45 46 48 50
42 40 40 40 39 38 40 39 40 40 41 41 41 41 40 40 40 40 40 40 40 40 40 41 41 41 42 42 43 43 43 44 44 45 45 45 45 44 44 45 47 48 48 45 44 46 46 47 47 45 46 47
42 41 40 39 38 38 38 38 38 38 40 39 40 40 40 40 40 39 39 40 40 39 39 39 39 39 40 40 40 42 43 44 44 44 44 43 42 45 43 43 46 47 47 42 41 41 42 45 49 47 46 45
41 42 41 40 39 39 38 40 40 40 40 40 40 41 41 41 40 40 38 39 39 38 38 38 38 38 39 39 39 40 40 42 42 43 42 42 41 41 44 44 46 46 47 41 44 44 42 39 40 46 45 46
41 41 41 40 39 39 38 37 39 40 40 40 40 38 40 40 40 39 39 39 38 37 37 37 36 37 37 38 39 38 38 40 41 42 42 42 42 42 39 41 43 47 46 45 42 36 37 38 41 37 42 44
40 39 37 37 38 38 37 37 37 36 36 37 37 38 38 38 39 38 37 37 37 36 36 36 36 36 37 37 37 38 38 39 40 41 42 42 41 41 39 38 41 44 46 45 47 42 38 35 34 34 42 46
35 33 33 33 32 30 31 30 31 30 31 33 34 34 37 37 38 37 37 36 36 36 36 35 36 37 36 36 37 37 37 39 40 40 41 42 42 40 41 40 39 40 45 45 46 45 45 43 38 38 40 41
34 33 33 32 31 30 29 28 30 33 34 33 34 35 34 34 36 36 35 36 36 37 35 35 36 36 36 36 36 37 37 37 39 40 41 42 41 41 41 40 36 37 39 43 44 44 44 44 44 43 39 34

ECMWFFLT2_sfc_temp_036.txt.gz
Temp
58 58 58 57 58 58 58 58 58 58 58 58 58 58 58 57 57 56 56 56 57 57 57 57 58 60 61 61 61 62 63 64 65 65 66 66 66 67 67 68 68 67 65 65 67 66 65 64 63 62 62 58
57 57 57 57 57 57 57 57 57 57 57 57 57 57 56 56 55 55 56 55 56 56 56 56 57 58 59 59 60 60 60 60 62 64 64 65 65 65 66 67 67 66 66 66 66 65 64 64 62 61 62 56
53 57 57 57 57 57 56 56 56 56 56 56 55 55 55 55 54 54 54 54 55 55 54 54 55 57 58 58 59 60 60 60 61 60 63 64 63 63 64 65 67 66 65 65 65 65 64 63 61 61 60 57
52 54 56 56 56 56 56 56 56 56 55 54 54 54 54 54 52 52 52 54 52 53 53 52 52 55 56 57 58 58 59 60 59 60 61 62 62 62 62 63 63 65 65 65 65 65 64 61 61 57 56 57
51 52 54 53 55 55 55 55 55 55 54 53 52 53 53 52 51 50 50 51 51 52 51 52 52 53 54 55 56 57 57 58 60 60 60 60 61 60 60 60 61 62 65 65 64 64 62 60 57 55 56 57
50 50 52 50 50 50 52 53 54 52 51 52 49 52 51 50 51 50 51 50 51 50 51 51 52 52 54 55 55 55 55 55 58 60 60 59 59 59 58 58 56 59 61 62 63 61 60 58 54 54 55 56
49 50 50 49 49 49 52 51 51 50 51 49 49 49 50 51 50 50 50 51 50 50 52 51 52 52 53 54 53 54 53 54 56 58 59 59 58 58 57 54 54 54 56 58 60 59 59 56 54 54 55 55
48 48 48 48 48 49 49 49 49 49 50 50 49 48 49 49 50 50 50 52 52 51 50 50 52 52 51 52 52 53 50 52 52 55 56 57 58 54 53 53 53 53 53 56 56 57 56 55 54 54 55 55
46 47 47 47 47 47 48 47 48 48 48 49 49 48 49 49 49 49 49 49 49 50 50 49 49 49 49 49 48 52 47 47 49 48 49 52 53 51 50 51 52 51 52 53 56 55 55 55 55 54 57 51
47 46 45 45 46 47 47 46 47 47 47 48 50 49 49 48 47 49 49 48 47 48 49 49 49 49 49 48 48 50 48 47 47 47 47 49 52 52 51 50 50 52 51 51 52 54 53 55 56 54 53 52
46 45 45 44 45 45 45 45 45 45 46 47 48 49 49 47 47 48 48 48 48 47 48 48 49 49 49 48 48 50 48 47 48 47 47 45 49 51 52 51 50 50 52 51 51 51 53 53 55 53 52 52
45 45 45 45 45 44 45 44 43 44 45 46 47 47 47 48 47 47 47 47 47 47 48 47 48 49 48 48 47 49 48 47 47 47 46 47 47 48 52 51 51 50 49 51 50 50 51 52 55 54 53 53
43 43 43 43 43 43 46 43 43 43 45 45 46 47 46 46 44 45 46 46 46 47 47 47 47 48 48 48 48 48 47 47 47 46 46 46 47 49 49 51 50 50 50 49 49 50 49 50 52 55 55 54
42 42 41 42 42 43 43 41 42 43 43 44 44 44 45 45 44 43 43 43 44 45 45 46 46 47 48 48 48 49 47 46 46 45 45 45 46 47 48 48 49 50 50 51 48 49 48 48 49 50 52 54
42 42 41 41 42 42 41 41 42 41 42 42 42 44 43 43 44 44 42 42 42 42 42 44 45 46 47 47 47 49 48 47 46 45 45 45 44 45 46 47 48 49 49 50 50 48 48 47 46 47 48 49
41 41 41 41 41 41 41 42 41 41 41 42 42 42 42 42 42 43 42 42 42 42 41 41 42 44 45 46 47 48 47 47 47 46 45 45 46 45 45 46 47 48 48 49 50 51 47 46 46 46 46 46
41 40 40 40 40 40 41 41 41 40 41 41 41 41 41 41 42 42 41 41 41 41 41 41 41 41 43 45 47 47 47 47 47 47 45 45 45 45 45 45 45 46 47 47 49 49 49 47 46 45 45 46
40 40 40 41 40 41 40 40 40 40 40 41 41 40 40 39 40 40 40 39 39 40 40 40 40 40 40 42 43 45 46 45 46 46 45 45 44 45 45 43 44 43 44 45 46 47 48 48 48 47 45 45
40 39 38 38 39 39 37 39 38 38 40 40 40 41 40 39 39 39 38 39 38 38 39 39 39 40 40 41 42 41 41 42 43 44 45 46 44 44 43 43 43 43 43 43 44 45 46 46 46 47 45 45
39 39 37 36 39 38 36 37 36 37 38 38 40 40 39 40 40 39 38 38 38 37 37 38 38 39 41 40 40 39 40 41 39 41 43 45 45 44 43 43 42 42 42 43 44 44 44 45 45 44 45 42
37 38 37 37 37 37 36 35 35 35 37 37 37 38 38 39 39 38 38 38 38 37 36 37 37 39 40 41 39 37 38 38 39 39 40 41 44 45 44 44 42 42 42 42 44 44 43 44 45 43 40 42
38 38 39 37 36 38 36 36 35 36 36 35 35 36 37 38 38 39 38 38 38 37 38 37 37 38 39 39 38 37 36 37 39 39 39 38 41 42 43 42 42 42 42 42 43 42 43 43 42 43 41 40
40 39 39 38 37 36 36 35 35 35 35 34 35 34 35 36 38 38 37 37 37 36 37 37 38 37 37 37 37 36 36 37 37 38 38 37 38 40 40 40 42 44 44 43 43 42 42 43 43 43 42 42
37 37 37 36 35 35 36 36 35 35 34 35 33 35 34 35 36 37 38 37 37 36 36 36 36 36 36 35 35 34 34 35 36 35 36 36 37 36 38 39 40 42 42 42 42 42 43 41 41 41 42 43
35 34 35 35 34 33 33 34 36 36 36 35 34 34 34 33 35 35 36 37 35 35 36 35 35 34 34 34 34 33 33 35 35 37 37 37 38 37 36 36 38 38 40 40 38 38 38 40 40 41 43 42
35 34 32 32 34 35 33 32 32 32 34 35 36 35 35 35 34 34 35 36 36 36 35 33 33 33 32 32 31 32 34 35 36 36 36 36 35 36 35 34 35 38 38 34 34 34 34 37 39 39 41 40
31 32 33 32 33 34 34 35 35 35 35 35 34 35 35 35 35 35 34 34 35 35 34 33 32 32 32 32 32 31 30 31 32 33 33 34 34 32 34 36 38 37 37 32 33 34 36 32 34 36 36 39
32 32 32 33 33 33 33 32 35 35 35 34 34 33 35 34 34 34 33 33 33 34 33 33 32 32 31 30 31 31 30 30 31 32 32 33 34 34 31 31 33 37 38 36 32 27 28 30 34 31 31 35
30 30 29 30 31 31 30 30 30 29 29 31 32 33 32 33 33 33 32 32 32 32 32 32 32 30 30 30 30 31 30 30 30 31 32 34 33 33 32 32 32 35 36 35 38 31 31 24 27 25 29 33
27 27 26 26 25 24 24 24 25 25 26 28 28 29 32 31 32 31 31 32 31 32 32 31 31 30 30 30 30 30 29 30 30 30 31 33 34 33 34 34 34 30 35 36 37 38 37 34 25 27 28 29
26 25 25 24 24 24 24 23 25 27 29 28 29 29 29 29 30 30 30 31 31 30 31 30 30 29 28 27 27 28 28 27 28 30 31 32 32 33 35 34 32 32 32 33 35 36 37 38 37 32 31 20

ECMWFFLT2_sfc_temp_042.txt.gz
Temp
53 54 54 54 55 55 55 56 56 56 56 56 56 56 56 56 55 55 55 56 56 56 56 56 57 58 58 58 58 58 59 59 59 60 60 61 61 61 61 62 63 62 64 65 65 66 65 65 63 62 61 55
50 52 53 53 53 53 54 54 55 55 55 55 55 55 54 54 54 54 55 55 55 55 55 54 55 57 58 58 57 57 58 58 59 59 59 59 59 59 59 59 60 61 61 61 65 63 64 64 63 61 61 55
45 50 51 51 52 52 52 53 53 53 53 53 52 53 53 53 52 52 53 53 54 55 54 53 53 55 57 56 56 56 56 57 58 58 58 58 58 57 57 57 57 58 59 59 58 62 64 63 61 61 59 55
42 46 50 49 50 50 51 51 51 51 51 50 50 51 51 51 50 50 49 52 51 53 53 52 52 54 55 56 56 56 55 56 56 57 57 56 56 55 56 55 54 55 56 57 57 57 59 61 61 59 55 54
42 44 48 45 47 48 49 49 49 49 48 48 47 48 49 49 48 47 47 48 48 50 49 51 52 53 55 55 54 54 53 54 55 55 55 55 54 54 52 52 51 52 54 54 55 55 55 60 59 56 55 54
42 42 46 44 43 43 45 45 46 44 44 45 43 46 46 46 47 46 46 47 48 47 48 48 50 51 53 54 54 55 53 53 54 54 54 54 53 52 50 49 46 47 49 52 52 52 53 53 54 54 54 53
41 42 43 43 43 43 46 44 44 42 42 42 42 43 44 46 45 45 45 46 46 46 48 47 49 50 51 52 53 53 52 52 52 53 53 53 52 50 49 43 43 44 45 46 49 49 49 49 51 52 53 53
40 40 41 41 42 43 43 43 43 43 42 41 41 42 43 44 44 44 44 45 46 45 44 45 47 48 48 48 49 50 49 50 50 51 50 50 50 46 44 42 42 43 44 44 45 45 46 47 50 51 51 52
38 40 38 39 40 40 41 41 42 43 42 42 41 41 42 42 42 42 42 42 42 42 42 42 43 43 44 45 45 48 46 47 46 46 44 43 44 43 43 42 42 42 42 43 43 43 44 45 49 50 50 46
40 40 36 37 39 39 39 39 40 41 42 42 41 41 40 42 40 40 40 40 39 39 40 40 41 41 42 42 43 45 44 45 45 45 45 44 43 42 43 42 42 42 42 41 42 42 43 44 47 49 49 48
38 36 37 37 37 37 37 37 38 38 40 41 40 40 40 39 38 38 38 38 38 37 38 38 39 39 40 40 41 43 43 42 44 44 45 44 44 43 43 42 42 42 42 42 41 42 43 43 44 46 47 49
36 36 37 38 40 36 39 38 36 36 37 38 39 39 38 39 37 36 36 36 36 36 37 37 37 38 38 39 39 41 41 40 41 43 44 44 45 44 44 43 42 42 42 42 41 41 42 43 43 44 45 47
35 36 36 36 34 34 40 35 35 35 37 35 36 36 35 36 35 35 34 34 35 35 35 36 36 37 37 37 38 39 39 39 39 39 42 43 43 44 44 43 42 42 42 42 41 41 41 42 42 43 43 44
34 34 34 35 35 34 39 33 34 35 34 35 34 34 34 35 35 33 33 33 34 34 34 34 35 35 36 36 37 37 36 38 37 38 39 40 42 43 43 44 44 42 40 41 41 41 40 41 41 42 42 44
35 36 34 35 35 34 34 33 35 34 34 33 35 35 33 33 34 34 32 32 33 34 34 33 33 34 35 35 36 37 36 37 36 37 37 38 38 40 42 43 44 43 43 41 41 41 40 40 40 41 42 42
34 34 33 35 34 34 33 33 33 32 33 35 34 35 33 32 32 34 31 32 32 34 33 32 32 33 33 34 35 36 35 35 36 36 36 36 38 38 40 41 43 43 42 43 42 41 40 40 39 40 41 41
32 32 33 33 33 34 35 33 34 32 33 33 34 35 33 33 33 34 31 31 32 34 31 31 31 31 33 33 34 34 34 34 34 34 35 35 37 36 37 38 40 42 42 42 42 41 41 40 39 40 39 40
31 32 32 33 32 33 32 33 32 33 33 33 34 33 32 32 33 34 31 31 31 31 30 30 30 31 31 32 32 33 33 32 32 32 33 33 34 35 34 34 36 38 39 41 42 41 41 41 40 40 39 39
32 33 31 31 32 32 31 32 32 32 32 31 31 32 30 32 32 33 31 31 31 30 29 29 29 31 30 31 31 30 31 31 31 31 31 32 31 32 32 33 34 35 36 38 40 41 41 40 40 40 39 39
31 31 30 30 32 30 31 31 31 31 31 31 30 30 31 31 31 32 29 31 30 29 29 28 29 30 30 30 30 29 29 31 30 30 30 31 31 29 30 32 31 33 33 36 38 40 40 40 40 39 39 38
29 29 29 30 29 30 30 30 30 31 31 31 30 31 30 30 32 31 30 30 30 30 29 28 30 30 30 30 29 28 28 29 30 29 29 29 31 30 29 30 30 31 32 34 36 38 39 40 40 39 38 39
28 28 29 27 27 29 28 28 29 30 30 30 30 30 30 30 31 32 29 29 29 28 31 29 28 29 29 29 28 28 28 28 29 28 28 28 29 30 29 28 29 30 31 32 33 36 38 39 40 39 39 39
27 27 27 26 26 26 27 26 28 29 29 29 29 29 29 29 29 30 29 28 28 28 28 27 27 27 27 28 27 27 27 27 28 28 28 27 27 29 29 28 29 30 31 31 32 33 35 39 40 40 39 40
24 24 24 23 24 24 25 25 27 27 27 28 28 29 28 27 27 27 29 27 27 26 28 26 26 26 26 26 26 26 26 26 26 26 26 26 27 26 28 29 29 30 30 31 31 32 34 36 38 39 40 40
22 21 21 21 22 21 23 24 26 26 26 27 28 28 26 27 27 27 26 28 26 26 27 26 25 25 25 25 26 24 25 26 25 27 26 26 27 26 25 26 28 29 30 28 28 31 31 33 36 38 40 40
22 22 22 20 20 21 22 22 22 23 25 26 28 27 26 26 25 25 25 27 26 27 25 25 25 24 24 24 24 26 26 26 27 25 24 25 24 26 25 24 27 27 28 24 24 25 25 30 34 36 38 38
21 22 23 21 21 21 21 23 24 24 25 25 24 24 25 25 24 24 24 25 26 25 25 24 24 24 23 23 25 24 23 23 23 23 23 24 23 23 25 25 27 26 27 23 26 26 26 22 28 32 34 33
22 23 23 22 22 22 22 22 24 24 23 23 23 23 24 24 24 24 23 24 24 25 23 23 23 23 23 23 24 23 22 22 22 23 22 23 24 24 20 22 23 27 26 25 24 17 19 23 26 23 24 30
22 23 21 21 22 22 22 22 21 20 21 21 22 23 22 23 23 23 23 24 23 24 23 23 23 22 23 22 22 23 22 22 22 22 22 23 22 22 20 20 22 24 25 25 26 24 21 17 16 17 26 28
22 21 19 19 18 16 17 17 18 17 17 19 19 20 22 22 23 23 23 23 22 23 24 22 22 22 22 22 22 23 22 22 22 22 23 23 23 21 22 21 21 20 25 26 26 26 27 27 22 23 26 28
22 19 19 19 18 18 17 16 18 20 20 20 20 21 21 21 22 22 22 22 22 22 23 23 22 22 22 22 22 23 22 22 22 22 23 24 22 22 24 22 18 19 21 25 24 25 26 28 29 30 27 21

ECMWFFLT2_sfc_temp_048.txt.gz
Temp
49 50 51 51 51 51 51 52 52 51 51 51 51 51 51 51 50 50 50 51 51 52 52 52 52 53 54 55 55 55 55 55 56 57 58 58 57 57 57 56 56 56 57 57 57 56 55 56 58 61 58 56
47 49 50 50 50 50 50 50 51 50 50 50 49 49 49 49 47 48 48 49 49 50 50 49 50 51 53 53 54 54 54 54 54 55 56 56 56 56 55 55 54 54 55 55 55 55 54 54 54 57 58 55
39 47 48 49 49 49 49 49 49 49 49 48 47 47 47 47 46 45 46 47 48 48 48 48 47 49 51 52 53 53 52 52 53 54 54 54 55 54 54 53 52 53 54 54 54 54 53 52 52 53 53 53
36 41 47 47 47 48 48 48 48 48 47 47 46 46 45 45 42 42 41 45 44 46 46 46 46 48 49 50 51 51 51 51 51 52 53 52 53 52 52 51 50 51 51 52 52 52 51 50 50 46 49 50
36 39 45 41 43 45 46 46 47 46 45 44 41 43 43 41 38 37 37 38 41 44 42 44 45 46 47 48 48 49 48 48 50 51 51 51 51 50 49 49 47 48 49 50 51 50 49 48 44 45 46 47
36 37 40 36 35 35 41 41 43 38 37 40 33 40 37 35 38 37 36 37 41 40 42 41 44 45 46 46 46 47 46 46 47 49 49 49 49 48 47 46 41 43 45 47 49 48 48 43 43 44 44 45
36 36 35 34 35 36 39 39 38 34 36 32 32 33 33 36 34 35 35 37 40 40 42 41 43 43 44 44 44 44 43 44 45 46 46 46 46 45 44 38 38 40 41 41 46 46 43 42 42 43 43 43
35 34 34 34 34 34 34 33 35 33 33 33 32 33 34 34 34 34 33 39 39 39 37 38 41 42 42 41 41 42 39 40 41 43 42 43 43 40 38 37 37 38 39 40 41 41 42 42 42 42 43 42
32 34 32 32 32 33 33 33 33 34 33 33 32 32 33 32 34 32 32 31 32 32 33 35 37 37 38 38 37 40 36 37 37 38 37 37 38 37 36 36 36 37 37 38 39 40 41 41 42 42 42 41
35 34 30 31 33 32 32 32 33 33 32 33 33 32 33 36 33 31 31 29 29 31 31 32 34 36 37 36 36 38 36 36 36 36 36 36 36 36 37 37 37 37 37 37 38 39 40 41 41 41 41 41
31 30 30 30 32 31 30 31 31 31 31 32 32 32 33 33 31 30 29 29 28 28 29 30 32 34 35 35 36 37 36 35 35 35 35 35 35 36 36 36 37 37 36 37 37 38 38 39 40 41 41 41
29 29 30 32 33 29 34 31 29 29 30 31 31 32 32 34 31 30 28 29 28 28 28 29 29 31 33 34 35 36 35 34 34 34 35 34 34 34 35 35 35 36 37 36 37 36 37 37 38 39 40 41
28 28 28 28 28 28 34 28 28 29 30 29 30 31 31 32 30 30 30 28 28 27 27 28 28 28 29 32 34 35 34 34 33 33 34 34 33 34 34 34 34 35 36 36 36 35 36 35 36 37 38 40
27 27 26 28 27 27 31 26 28 28 28 28 28 29 30 30 30 29 29 28 27 26 27 27 26 27 27 29 32 33 32 34 33 33 33 33 33 33 33 33 34 35 34 35 36 35 35 34 35 36 36 38
26 27 26 28 26 26 27 27 29 27 27 27 27 29 28 28 29 30 29 27 26 26 27 26 26 26 26 26 29 32 31 32 32 33 33 33 32 32 33 33 34 34 33 34 35 36 35 34 35 35 35 37
26 27 26 27 26 26 27 28 26 25 26 28 27 28 27 28 28 30 28 27 27 28 26 26 25 25 26 26 27 30 30 31 32 32 33 33 33 33 33 33 33 34 33 33 34 35 35 36 34 34 35 35
26 25 25 25 25 27 28 26 26 25 26 26 27 27 26 27 28 29 26 26 26 28 24 25 24 24 26 26 27 27 28 30 30 31 31 31 33 32 32 32 32 33 32 32 33 34 34 35 35 36 35 35
24 25 25 27 24 27 26 24 23 25 25 26 27 26 26 26 27 27 26 25 25 25 24 24 24 24 24 25 25 26 27 27 28 28 29 30 30 31 31 30 31 31 30 31 32 32 34 35 35 36 36 34
25 27 24 23 23 24 24 26 24 23 24 23 25 25 25 26 26 26 24 24 24 24 24 23 23 23 23 25 25 23 24 25 26 27 27 29 27 29 29 30 30 30 30 30 30 31 33 33 34 35 35 36
23 23 23 23 27 23 23 24 23 22 23 24 23 24 24 24 26 25 23 24 23 23 23 23 22 23 24 23 24 23 23 25 24 25 26 27 28 26 26 28 27 30 29 29 29 31 31 32 33 34 35 35
22 23 22 23 23 22 23 22 22 22 23 23 23 23 23 23 25 23 23 23 23 22 23 22 22 22 23 23 22 22 22 22 25 24 24 25 27 27 25 26 26 27 28 28 29 30 30 31 32 33 34 35
23 23 23 22 22 25 23 22 22 22 23 22 22 22 22 23 24 25 22 22 23 22 24 23 22 22 22 22 22 22 22 22 23 22 23 23 24 26 25 25 25 25 27 27 27 28 29 30 32 33 33 35
23 22 22 22 22 21 22 22 21 22 22 22 22 21 22 23 22 24 22 22 22 22 22 21 22 21 21 22 21 21 21 21 22 23 22 22 23 24 24 25 25 25 26 26 26 27 28 30 31 32 33 34
21 21 21 20 21 21 21 21 22 23 22 22 21 23 22 22 22 22 23 22 22 21 22 21 21 21 21 21 21 20 20 20 20 21 21 21 23 22 23 25 25 25 24 25 25 27 28 29 30 31 32 33
20 19 19 20 20 19 20 20 22 22 21 21 21 22 21 21 22 21 21 23 21 21 23 22 20 21 21 21 21 21 21 21 20 22 22 22 22 22 21 22 23 24 25 23 23 26 26 27 30 32 34 33
22 20 19 19 18 19 19 19 19 19 20 21 23 22 21 21 21 20 20 22 22 22 21 20 20 20 20 20 20 22 21 22 23 21 20 21 19 22 21 20 23 23 23 19 20 19 20 25 29 31 31 31
20 21 21 19 19 19 19 21 21 20 21 22 21 21 21 21 20 20 20 20 22 21 21 20 20 20 20 19 21 20 19 19 19 20 19 20 19 19 20 21 23 22 22 19 22 21 21 17 23 28 28 30
22 21 21 21 20 20 19 19 21 22 22 21 20 20 21 20 20 20 19 20 20 21 20 20 20 20 19 19 20 19 18 19 19 19 19 19 20 20 16 18 19 23 22 20 20 11 15 19 20 18 21 24
21 21 20 20 20 20 19 20 19 19 19 20 21 21 19 20 20 20 20 20 20 21 20 20 20 19 19 19 19 20 18 18 19 19 19 19 19 18 17 16 18 20 21 20 22 19 17 8 10 12 21 21
21 21 19 18 17 15 16 16 16 16 16 17 18 18 20 20 20 20 20 20 20 20 21 20 20 19 19 19 19 19 19 19 19 19 18 19 19 18 19 17 16 15 21 22 22 22 22 21 14 16 16 20
22 19 19 18 17 17 16 15 17 18 19 18 19 19 19 19 19 20 19 20 19 20 20 20 19 19 19 19 19 20 19 18 18 19 19 20 19 18 20 18 15 16 17 21 20 21 22 22 22 21 17 8

ECMWFFLT2_sfc_temp_051.txt.gz
Temp
49 49 50 51 51 51 51 51 51 51 51 51 50 50 50 49 48 48 49 50 50 51 51 50 51 51 52 52 53 52 53 53 53 53 54 54 54 54 54 54 54 54 55 55 55 55 54 54 53 53 52 51
46 48 49 50 49 49 49 50 50 50 50 49 49 49 48 47 46 47 47 48 48 49 49 49 49 50 51 52 51 51 51 51 52 52 53 53 53 53 52 52 52 52 53 54 54 53 53 52 52 51 50 47
42 45 47 48 48 48 48 48 49 49 48 48 47 47 46 46 45 44 45 46 46 48 48 47 47 48 50 50 51 50 50 49 50 51 51 51 51 51 50 49 48 49 50 51 52 52 52 51 50 49 47 45
41 42 46 46 45 46 46 47 47 47 46 46 45 45 45 44 43 42 42 44 44 45 45 45 46 47 48 49 49 49 48 48 48 49 49 49 49 48 47 46 44 45 47 48 50 50 50 49 48 44 44 45
40 41 44 41 42 43 44 44 45 44 43 43 42 42 43 42 42 42 41 41 43 43 43 44 45 46 47 47 48 47 46 46 47 47 47 47 47 46 44 42 40 40 42 44 46 48 48 48 43 43 44 44
39 40 41 39 39 40 42 41 42 40 40 40 39 40 40 41 42 42 41 41 42 42 43 43 44 44 45 45 46 46 45 44 45 46 45 45 45 44 42 40 35 36 38 40 42 44 45 42 42 42 43 43
39 39 39 39 38 39 39 39 39 38 39 38 38 38 39 41 41 41 41 41 42 42 41 42 42 43 43 43 44 44 43 42 43 43 43 43 43 41 39 34 34 35 35 35 39 39 38 39 40 41 42 42
39 39 39 38 38 39 38 38 38 37 37 37 37 37 38 39 39 40 40 40 40 40 40 40 40 40 40 41 41 42 40 40 40 41 40 40 40 37 35 34 33 34 34 35 35 35 36 36 37 39 41 41
38 38 37 37 38 38 38 37 37 37 36 36 36 36 37 37 39 38 39 39 39 39 39 38 39 39 40 40 39 40 37 37 37 37 35 35 36 35 34 33 33 33 33 34 34 34 35 35 36 36 39 39
38 37 36 36 38 38 37 36 36 36 36 36 35 35 36 38 37 37 37 37 37 38 38 38 38 38 39 38 38 40 38 36 36 36 36 35 35 35 35 34 33 33 33 32 33 33 34 34 35 35 36 37
36 36 36 36 37 36 36 36 35 35 35 35 35 34 35 35 35 35 35 35 36 36 38 37 37 37 38 38 38 39 38 36 36 36 35 35 35 35 34 34 33 33 33 32 32 32 33 34 34 34 35 36
35 35 35 36 36 34 37 35 34 34 34 34 34 34 35 35 34 34 33 34 35 36 36 36 36 36 37 37 37 38 38 36 36 35 35 35 35 34 34 34 33 33 33 32 32 31 32 33 33 34 34 35
35 34 34 34 33 33 36 34 34 33 33 33 34 34 33 34 33 33 33 33 34 35 35 35 35 35 36 36 36 37 36 36 35 35 35 34 34 34 34 34 33 34 33 33 32 32 31 32 32 33 34 34
34 34 33 33 33 33 35 32 33 33 33 33 33 33 33 33 33 33 32 32 33 33 33 34 34 34 34 34 35 36 35 36 35 35 35 34 34 34 34 34 34 34 33 33 33 32 31 31 32 33 33 34
34 34 33 33 33 32 32 33 33 33 32 32 33 33 32 32 32 33 32 31 31 33 32 33 33 33 33 33 34 35 34 35 35 35 34 34 34 33 34 33 35 34 33 33 33 33 32 31 33 32 33 33
34 33 33 33 32 32 32 33 32 32 32 32 32 32 31 31 32 33 32 31 31 32 31 32 32 32 32 32 33 33 33 33 34 34 34 34 34 34 34 34 34 34 33 32 33 33 32 32 32 32 33 33
33 32 32 32 32 32 32 32 31 31 31 30 31 31 31 31 31 33 31 31 30 31 30 30 30 30 31 31 32 32 31 31 33 33 33 32 34 33 34 33 33 33 33 33 33 33 32 33 32 32 33 33
32 32 32 33 32 32 31 31 30 31 31 30 31 31 30 30 30 32 31 30 30 30 30 30 30 29 30 31 31 31 31 31 32 32 31 31 31 31 32 30 32 32 31 32 33 33 33 33 32 33 32 33
32 32 32 31 30 31 30 30 30 30 30 29 29 30 30 29 29 31 29 29 29 29 29 29 29 29 30 30 30 30 31 30 31 31 30 30 29 30 30 30 31 30 31 31 31 32 33 32 33 33 32 33
31 32 30 30 31 30 29 29 29 29 29 29 29 29 28 28 29 30 28 28 28 28 29 29 29 29 30 29 30 30 30 30 30 30 29 30 29 27 28 29 28 30 29 30 30 31 32 32 32 32 33 33
30 30 29 29 29 29 28 28 28 29 29 28 28 28 28 28 28 29 27 28 28 28 27 28 28 29 28 29 29 28 29 29 30 29 28 29 29 28 26 27 27 28 29 29 29 30 30 31 32 32 32 33
29 29 29 29 28 29 29 28 28 28 28 27 28 27 27 27 28 28 27 27 27 27 28 28 27 27 27 28 28 28 28 28 29 29 28 28 28 28 27 26 26 26 28 28 28 29 29 30 31 32 33 34
29 28 28 27 27 27 27 27 27 27 27 27 27 27 27 27 27 28 27 26 27 26 27 27 27 27 27 27 27 27 27 27 27 28 27 26 27 28 27 26 26 26 27 27 27 27 29 30 31 32 33 34
28 27 27 26 27 26 26 27 27 27 27 27 27 27 27 27 27 27 27 26 26 26 26 26 26 26 26 26 26 25 25 25 26 25 25 25 26 26 27 28 27 27 26 26 26 27 29 30 31 31 32 33
26 25 25 25 25 25 26 25 26 26 26 26 26 26 26 26 27 26 25 26 26 25 25 26 26 25 25 26 25 25 25 25 25 26 26 25 26 25 24 25 27 26 27 24 24 27 27 28 31 31 33 33
28 27 27 26 26 25 25 24 25 24 26 26 26 26 26 26 26 26 25 26 25 25 25 25 25 25 24 24 25 25 25 25 25 25 24 25 24 26 24 23 26 26 25 21 21 20 22 27 32 34 33 33
27 27 27 26 26 25 24 26 26 25 25 26 25 26 26 26 26 25 25 25 25 24 24 24 24 24 24 24 24 23 23 23 23 24 23 23 23 23 24 24 26 25 25 20 22 22 22 20 24 30 30 33
27 27 27 26 26 25 25 24 25 25 25 25 25 24 25 26 26 25 25 25 24 24 24 24 24 24 24 24 24 23 22 22 22 23 23 23 23 23 20 22 23 25 25 23 21 14 18 21 21 22 22 24
28 26 26 25 24 25 23 24 24 23 23 24 24 24 24 25 25 25 24 24 24 24 24 24 24 24 24 23 23 24 22 22 23 23 23 23 22 22 21 20 21 23 25 24 26 21 17 14 13 17 22 21
27 26 24 23 22 21 21 21 21 21 21 22 22 23 25 25 25 25 24 24 24 24 24 23 24 24 23 23 23 23 23 23 23 23 22 23 23 21 22 21 20 20 24 25 25 24 24 23 16 17 18 19
26 24 24 23 23 23 22 21 22 24 24 23 24 24 23 24 24 24 24 24 24 23 24 24 24 23 23 23 23 23 23 22 22 23 23 23 22 22 23 21 19 19 21 23 23 24 24 23 23 23 18 9

ECMWFFLT2_sfc_temp_054.txt.gz
Temp
49 49 50 50 50 50 50 50 50 51 50 50 50 50 49 49 48 48 48 49 49 50 50 50 50 51 52 52 52 52 52 52 52 52 53 54 54 54 53 52 51 51 52 52 53 53 53 52 52 51 50 46
48 48 49 49 49 49 49 49 49 49 49 49 49 48 48 47 47 47 47 47 48 48 48 48 49 50 51 51 51 51 50 50 50 50 51 52 52 52 51 50 49 49 50 51 51 51 51 50 50 49 48 45
51 47 48 47 47 47 47 48 48 48 48 48 47 46 46 46 46 46 46 46 47 47 47 46 47 48 49 50 50 50 49 49 49 50 50 50 50 50 49 48 47 47 48 49 49 49 49 49 47 47 45 44
51 49 46 46 46 46 46 46 46 46 46 46 45 45 45 45 46 47 48 46 47 46 46 45 46 46 48 48 49 49 48 47 48 49 48 48 48 48 46 45 44 44 45 46 47 47 47 46 45 41 41 42
50 49 46 48 46 45 45 45 45 45 45 45 45 44 44 45 48 48 48 48 48 46 47 44 44 45 46 47 47 47 46 46 46 47 47 46 46 45 44 43 41 41 42 43 44 45 44 43 39 39 39 40
49 49 48 48 49 48 47 46 44 47 46 45 47 45 46 47 49 48 48 48 46 47 46 46 43 43 45 46 46 46 45 44 45 45 45 45 44 43 42 40 36 37 38 40 42 42 42 39 38 37 38 39
49 49 50 49 48 48 46 46 46 47 46 47 46 45 46 47 48 47 47 47 45 44 43 44 42 42 44 44 44 44 44 43 43 43 44 43 42 42 40 37 35 36 35 35 39 38 36 36 37 37 37 38
50 49 50 49 49 49 48 47 47 47 46 46 45 44 45 46 45 45 46 44 44 44 47 46 44 43 42 43 43 41 44 44 42 42 42 41 41 41 40 39 36 36 35 35 35 35 35 35 36 36 36 36
49 49 48 49 48 48 48 47 47 47 46 45 44 43 45 44 44 44 45 45 45 46 46 46 46 46 46 47 46 43 45 46 45 44 43 44 43 43 42 39 37 36 34 34 33 34 34 35 35 35 35 35
48 46 47 48 48 47 48 46 46 46 46 45 44 43 43 43 43 43 43 43 43 44 45 45 45 45 46 45 45 46 46 45 45 45 45 43 43 44 43 40 39 37 36 33 34 33 34 33 33 34 34 34
47 47 47 47 47 45 46 46 45 45 45 44 43 42 43 42 42 42 42 42 42 42 44 44 45 45 45 44 44 46 45 44 44 45 44 44 43 43 42 41 40 38 36 35 33 32 32 33 33 33 34 34
47 47 46 46 45 45 45 44 44 44 44 43 43 43 43 42 42 41 41 41 41 41 43 43 44 44 43 44 44 45 45 44 44 44 44 43 43 42 42 42 40 39 37 36 35 33 32 32 33 33 33 34
47 47 46 45 45 44 43 44 44 44 43 43 43 43 42 41 40 40 41 40 40 41 41 42 42 42 43 43 43 44 43 44 43 43 43 43 42 42 42 42 41 40 39 37 35 34 33 32 32 32 33 33
46 46 45 44 44 44 44 44 43 42 43 43 42 42 42 40 40 39 39 39 40 40 40 40 41 41 42 42 42 43 42 43 42 42 42 42 42 42 41 41 41 40 39 37 36 35 34 33 32 33 33 33
47 46 45 45 44 44 43 43 42 43 43 42 42 42 40 39 39 39 39 39 38 39 39 40 40 40 41 41 41 42 41 42 42 42 41 41 40 41 41 40 41 41 40 38 36 35 35 34 34 33 33 34
46 45 45 44 44 43 43 42 42 42 42 41 41 40 39 38 39 39 38 38 38 38 38 39 39 39 39 40 41 41 40 40 41 41 41 40 40 40 40 40 41 41 40 39 37 36 35 35 34 34 34 33
46 45 44 44 43 43 42 41 41 41 41 40 40 40 39 38 37 38 38 38 37 37 37 38 37 38 39 39 40 40 39 38 39 40 40 40 40 40 40 39 39 39 40 38 37 36 35 34 34 35 35 34
46 45 44 44 43 43 41 41 41 40 40 40 39 39 38 37 37 37 37 37 37 37 37 37 37 37 38 39 38 38 39 38 39 39 39 39 39 38 38 38 38 38 37 38 38 36 34 34 34 35 34 35
45 45 44 43 43 42 41 41 40 40 40 39 39 39 38 37 36 36 36 36 36 36 36 36 36 37 37 38 38 37 38 38 38 38 37 38 37 38 37 37 38 37 36 36 36 36 35 33 34 34 34 35
45 44 44 42 41 41 40 39 39 39 39 39 38 38 37 36 36 35 36 36 35 34 35 35 35 36 38 37 36 37 37 37 36 37 37 37 37 35 35 36 35 37 36 36 36 36 34 33 33 33 33 34
43 43 43 42 41 40 39 38 38 39 39 38 37 37 36 36 35 35 35 35 34 34 34 34 35 36 36 36 35 35 35 35 36 36 34 36 37 37 34 34 34 35 36 35 35 35 34 32 32 32 33 34
42 42 42 41 40 39 38 38 38 38 38 37 37 36 36 35 34 34 34 34 33 34 34 34 34 34 34 34 34 34 34 34 35 35 35 33 35 36 34 34 34 33 34 34 32 33 33 32 32 32 33 34
42 41 41 41 39 38 38 38 38 37 37 36 37 36 35 34 34 34 34 33 33 33 33 33 33 33 33 33 33 33 33 33 33 34 34 32 32 34 35 34 34 33 33 32 31 32 33 33 33 33 34 34
40 39 38 37 38 36 36 37 37 37 36 37 36 36 34 34 33 34 34 33 33 32 32 32 32 33 33 32 32 31 31 31 32 32 31 31 31 31 33 34 35 34 32 32 32 32 33 33 33 33 34 34
39 38 37 37 37 37 38 38 37 36 36 36 36 35 34 33 33 33 33 32 32 31 31 32 32 32 32 32 32 31 31 31 31 31 31 31 32 30 30 31 34 33 32 30 30 33 32 32 34 34 35 35
40 41 40 39 39 39 39 38 36 35 37 35 35 34 33 33 33 33 32 32 32 31 31 30 31 31 31 31 31 31 31 31 30 30 30 30 29 32 30 30 32 32 30 29 28 27 28 31 35 36 36 35
41 41 41 40 41 39 38 39 38 37 37 36 34 34 33 33 33 32 32 32 31 30 30 30 30 31 31 31 31 30 30 30 29 30 29 29 28 29 32 31 32 30 30 27 29 29 28 28 27 32 33 35
42 42 41 40 39 39 38 37 37 35 34 34 33 32 33 33 33 32 32 32 31 31 30 30 30 31 31 31 31 29 29 29 29 29 29 29 29 29 27 30 31 32 30 29 27 23 26 27 27 25 27 27
41 40 38 37 36 35 33 34 33 32 32 33 33 33 33 32 33 32 31 31 31 31 30 30 30 30 30 30 30 30 29 29 29 29 30 29 28 28 27 27 29 30 31 29 31 27 24 22 21 22 26 25
40 38 37 35 33 31 31 30 31 31 31 32 32 32 34 34 33 32 32 31 31 30 30 29 29 29 29 29 29 29 29 30 29 29 28 29 29 28 28 27 27 28 31 30 30 29 30 29 22 20 22 23
39 38 38 36 35 35 35 34 36 37 37 36 36 35 33 33 33 32 31 31 31 30 30 29 29 29 29 29 30 30 29 28 29 29 29 29 28 29 29 28 25 26 28 30 30 30 29 29 28 25 21 15

ECMWFFLT2_sfc_temp_057.txt.gz
Temp
50 50 50 51 51 50 50 50 50 50 50 50 50 50 50 49 49 49 49 50 49 50 50 50 49 50 50 51 52 52 52 51 51 52 52 52 52 52 52 52 51 50 50 51 51 51 51 51 50 49 48 48
50 49 49 50 49 49 49 49 49 49 49 49 49 49 48 48 48 48 49 49 49 49 49 49 48 49 49 50 51 51 51 50 50 50 51 51 50 50 50 49 49 48 48 49 50 50 49 49 48 47 47 46
54 50 48 48 48 48 48 48 48 48 48 48 48 47 47 47 47 48 49 49 49 49 49 48 48 48 49 49 50 50 50 49 49 49 49 49 49 48 48 47 47 46 47 48 48 48 48 47 46 46 45 43
55 52 48 48 47 47 47 47 47 47 47 47 47 47 47 47 47 49 50 49 50 49 48 48 47 47 48 48 49 49 49 48 48 48 48 48 48 47 47 46 45 45 45 46 46 46 46 45 44 43 42 42
53 52 48 50 50 48 47 47 46 47 47 48 48 47 47 47 49 50 50 50 50 48 48 47 46 47 46 47 48 48 47 47 47 47 48 47 47 46 45 44 44 43 43 44 44 44 43 42 41 41 41 40
53 53 52 52 52 52 50 49 47 48 49 47 49 47 47 48 49 50 49 49 48 48 47 46 46 45 45 46 47 47 46 46 46 46 46 46 46 45 44 44 44 44 42 42 42 42 41 40 38 38 39 40
54 54 54 53 53 52 50 51 50 50 50 49 48 48 47 48 49 48 47 48 47 46 46 47 47 46 46 47 46 46 45 46 46 45 46 45 45 45 44 44 44 44 42 42 42 41 40 40 39 38 37 38
55 54 54 53 53 52 52 52 51 50 50 49 48 47 47 48 47 46 47 46 46 46 48 48 47 47 46 46 47 46 46 46 47 47 47 46 45 46 46 45 44 44 43 43 42 41 40 39 39 38 37 36
54 54 53 53 53 52 52 51 51 50 50 49 48 47 47 46 46 46 47 47 47 46 47 47 47 48 48 48 47 46 46 47 47 47 46 47 46 46 45 44 44 43 42 43 39 38 39 37 38 38 37 36
54 51 51 52 53 52 52 51 51 50 50 49 48 47 46 46 46 46 46 46 45 45 46 46 47 47 48 47 47 47 47 47 47 46 46 46 46 45 45 44 44 43 42 41 40 39 37 36 36 36 37 36
53 52 53 52 52 50 50 51 49 49 49 49 48 46 46 45 44 44 45 45 44 44 45 45 46 46 47 46 46 47 46 46 46 46 46 46 45 45 45 44 44 43 43 42 40 38 37 35 35 36 35 37
53 53 52 51 51 49 50 48 48 49 49 47 47 47 47 46 44 43 43 43 44 43 44 44 45 45 45 46 46 47 46 45 45 45 45 45 45 45 45 44 43 43 43 43 42 39 38 35 36 36 37 35
52 53 52 51 50 50 49 48 49 49 48 47 47 47 46 46 43 43 43 42 43 44 43 43 43 44 44 45 45 45 45 45 44 44 44 44 44 44 44 44 43 43 43 43 43 41 39 38 36 36 35 35
52 52 51 50 50 50 49 48 49 48 47 47 47 46 46 45 43 42 42 42 42 42 41 42 43 43 44 44 45 44 43 44 44 43 43 43 43 43 43 42 43 43 42 42 42 42 40 39 37 37 38 36
53 53 51 51 50 50 48 48 48 47 47 47 47 46 45 44 43 42 42 42 41 41 41 41 42 42 43 43 43 44 43 44 43 43 42 42 42 41 41 41 42 42 42 41 42 42 41 40 40 38 38 37
52 52 52 51 50 49 49 48 47 47 47 46 46 46 44 43 42 42 41 41 41 40 40 40 41 41 41 41 43 43 43 42 42 41 41 41 42 42 41 41 42 42 41 41 41 42 41 41 40 39 39 37
53 52 52 51 49 50 48 48 47 46 46 46 46 45 43 43 42 42 41 41 40 40 39 39 39 40 41 41 42 42 42 41 40 40 40 41 42 41 41 41 41 41 41 40 41 41 41 41 40 40 39 38
53 52 51 51 50 49 48 47 46 46 46 46 45 45 43 42 41 41 41 40 40 40 39 39 39 39 40 41 41 41 41 39 40 40 40 39 40 39 40 39 40 40 39 40 40 40 40 40 40 40 39 38
53 53 51 50 49 49 47 47 46 46 46 45 45 44 43 42 41 41 40 39 38 38 39 38 38 39 40 41 41 40 40 39 39 39 38 39 38 39 38 39 39 39 38 38 38 39 40 39 40 40 39 38
53 53 52 50 48 49 47 46 46 45 45 45 45 44 43 42 41 40 40 39 39 38 38 38 38 39 40 40 40 39 38 38 37 38 37 38 38 36 36 37 37 38 37 38 38 39 39 38 38 39 39 38
52 52 52 51 49 48 47 45 45 45 45 45 43 43 42 42 41 40 39 38 38 37 37 37 37 38 38 39 38 37 37 37 37 37 36 37 38 37 35 35 35 36 37 37 37 38 37 37 37 38 38 38
52 51 51 50 49 47 46 45 45 45 44 43 43 43 42 41 40 39 39 38 38 37 37 37 37 37 37 37 36 36 35 35 37 36 36 34 36 36 35 34 34 34 35 36 35 36 36 36 37 38 38 39
52 51 50 49 48 47 46 44 44 44 43 43 43 42 42 41 40 39 38 38 37 36 36 36 36 36 36 36 35 34 34 34 35 35 35 34 34 35 35 34 34 34 34 34 35 34 35 37 37 38 39 39
50 48 47 45 46 44 44 44 43 43 42 43 42 42 41 40 39 39 38 38 37 36 35 35 35 35 36 35 34 33 32 33 33 33 33 33 33 32 33 35 34 35 35 34 34 33 35 37 38 38 39 39
48 45 44 44 44 43 44 43 44 43 42 42 42 42 41 39 38 38 37 37 36 35 35 35 35 35 34 35 34 33 32 33 33 33 33 32 33 31 30 31 34 35 35 32 30 34 35 36 39 39 39 39
49 47 46 45 44 44 45 44 42 42 43 42 41 41 40 39 38 37 37 37 36 35 34 34 34 33 33 34 33 33 33 33 33 33 32 32 30 32 31 30 34 34 33 29 29 28 29 32 38 41 40 39
48 49 48 47 47 47 45 48 47 45 44 43 41 40 39 38 38 37 36 36 36 34 34 34 33 33 34 33 33 32 32 32 31 32 31 31 30 29 32 32 34 33 33 28 30 30 28 29 29 35 36 39
50 50 50 49 47 48 47 45 46 45 44 42 41 38 39 38 37 37 36 36 35 34 34 33 33 33 33 33 34 32 31 31 32 32 31 31 31 30 27 30 32 36 34 31 28 23 27 26 28 26 32 31
50 48 47 46 45 44 43 43 42 41 39 39 39 38 37 37 37 36 35 36 35 34 33 33 32 32 33 32 33 33 31 31 32 32 32 32 31 30 29 28 31 33 34 32 32 28 24 24 23 25 28 28
49 46 44 43 41 38 38 37 37 36 37 37 37 36 38 38 38 36 35 35 35 34 34 32 32 32 32 32 32 32 32 32 32 32 31 32 31 30 31 29 29 29 33 34 32 31 30 29 22 23 26 26
48 45 44 43 42 41 40 39 40 42 41 40 40 40 38 38 38 36 35 35 35 34 33 33 32 32 31 32 32 32 32 31 31 32 32 32 31 31 31 30 27 28 30 33 33 32 31 30 30 30 24 21

ECMWFFLT2_sfc_temp_060.txt.gz
Temp
52 51 52 52 51 51 51 51 51 51 52 51 51 51 51 50 50 50 50 51 51 52 52 51 52 52 51 52 52 52 52 52 52 51 52 52 51 51 51 50 50 50 50 50 50 50 49 49 48 48 48 43
51 51 51 51 50 50 50 50 50 50 50 50 50 50 49 49 49 49 50 51 51 52 52 51 51 51 51 51 51 51 52 51 51 51 51 51 51 50 50 50 50 49 49 49 49 49 48 47 46 47 46 40
49 51 50 50 49 49 49 49 49 49 49 49 49 49 49 49 49 49 50 51 51 51 51 50 50 50 51 51 51 51 51 51 51 50 50 50 50 50 49 49 49 48 48 48 48 48 47 46 45 45 41 38
48 49 51 50 50 49 48 48 48 48 49 48 49 49 49 48 47 47 47 50 48 49 50 49 48 49 50 50 50 50 50 50 50 50 49 49 49 49 48 48 47 47 47 47 46 46 46 45 43 37 35 36
49 49 49 49 50 49 49 49 48 48 48 49 48 48 47 46 44 42 42 43 43 48 44 47 47 48 49 49 49 49 49 49 49 49 49 48 48 48 47 46 46 46 46 46 45 45 44 43 36 34 34 35
48 47 49 46 46 46 47 49 49 45 44 48 43 47 43 41 43 41 41 41 45 42 43 43 47 48 49 50 50 50 49 48 49 49 48 48 49 48 48 46 38 39 43 45 44 44 44 36 33 33 33 33
49 47 46 46 46 46 49 47 45 44 45 43 43 43 42 43 41 41 40 41 44 44 46 45 48 48 49 50 50 49 48 48 49 49 49 49 49 48 47 40 36 35 34 35 44 42 37 32 33 33 33 32
48 47 47 46 45 45 44 44 44 43 42 43 43 42 41 41 41 40 39 45 46 46 42 42 46 47 48 48 49 49 46 47 47 49 49 48 48 46 42 36 36 36 34 34 33 33 32 31 31 32 33 32
46 46 45 45 44 45 44 43 43 43 42 42 41 41 41 41 40 39 38 39 39 39 39 38 39 41 41 41 39 46 38 40 40 42 38 39 41 37 37 37 35 35 33 34 34 31 30 31 32 32 33 30
48 49 44 44 45 44 45 45 43 43 42 42 41 40 41 41 39 38 38 38 37 37 38 38 38 39 40 39 38 41 40 38 37 37 37 38 39 37 36 37 35 35 36 35 34 30 29 29 29 28 30 30
46 44 44 45 44 43 43 42 43 41 41 42 41 41 40 40 38 37 37 37 37 37 37 37 37 37 38 39 39 40 38 37 37 37 37 36 37 36 36 36 35 35 34 34 33 33 32 29 28 28 29 30
45 44 46 46 46 45 43 43 41 40 40 42 40 41 41 42 38 36 36 36 36 36 36 36 37 37 37 37 37 40 38 38 36 36 36 36 36 37 36 36 35 35 35 33 34 32 32 30 28 28 29 30
45 45 46 45 43 41 46 43 41 40 42 40 40 41 40 40 37 36 36 35 35 36 35 36 36 35 35 37 37 39 36 36 36 36 35 36 36 36 36 35 35 34 35 35 35 35 32 32 29 28 29 29
45 45 44 45 44 42 45 40 42 41 39 39 39 38 39 39 38 36 35 34 35 35 34 35 35 36 36 36 36 36 37 36 35 34 34 34 35 35 35 35 36 36 34 34 34 34 34 33 33 29 30 28
47 46 45 45 43 43 43 42 43 41 40 39 39 40 39 38 38 37 35 35 34 34 34 34 34 35 36 34 35 36 36 35 35 34 34 34 34 34 34 34 34 34 34 33 34 34 34 33 34 32 33 30
47 47 46 45 44 43 43 43 40 39 40 40 38 39 38 37 36 38 35 35 34 34 34 33 33 33 34 34 34 36 35 35 34 34 34 34 35 35 35 34 34 35 33 33 34 34 33 33 33 31 32 32
46 45 45 45 44 44 44 42 41 40 40 40 40 39 38 37 37 37 36 34 35 36 33 33 33 33 35 35 36 36 35 34 33 33 33 34 35 33 34 34 33 35 34 33 33 34 33 34 32 33 33 32
46 45 45 45 43 43 42 40 39 40 40 40 39 39 38 37 37 37 35 34 34 33 32 33 33 33 33 33 34 35 34 32 33 32 31 32 32 34 34 31 32 31 32 32 32 32 33 33 33 33 32 32
47 46 45 43 43 43 41 42 40 38 40 38 38 39 36 37 37 37 35 34 33 33 32 32 32 33 32 34 34 32 32 32 32 32 32 31 31 31 30 30 32 32 31 31 32 32 33 32 33 32 32 32
48 48 46 43 44 43 40 39 40 39 39 39 37 37 37 37 37 36 35 34 34 31 32 31 31 32 33 33 32 32 31 32 30 31 31 32 31 28 29 31 29 31 30 31 32 32 32 31 33 31 32 32
45 47 46 46 44 43 40 39 38 37 39 39 38 36 35 36 37 35 35 34 33 32 32 31 32 31 33 33 31 30 29 29 31 29 31 30 32 31 27 28 29 30 30 30 31 31 31 31 32 31 32 32
46 46 46 43 42 42 41 41 39 38 38 38 36 36 35 36 36 36 34 34 33 31 33 32 31 31 32 32 29 29 29 28 30 29 29 28 29 30 29 27 27 27 29 30 30 30 31 31 31 31 32 32
46 45 44 42 42 41 41 40 38 37 36 36 37 36 36 36 36 36 34 33 33 31 31 31 31 31 31 31 28 29 28 28 29 30 29 28 27 29 29 27 27 27 28 29 29 29 30 31 32 32 33 33
41 40 40 38 39 39 39 39 37 38 37 37 36 37 36 36 34 34 34 33 33 32 32 30 30 30 31 29 28 27 27 27 26 26 27 27 28 27 28 30 28 28 27 28 28 29 30 31 31 31 33 33
40 38 37 36 37 37 38 38 39 38 37 37 37 37 36 35 34 33 33 34 32 31 32 31 29 30 29 29 29 27 27 27 27 28 27 26 28 27 25 25 27 27 28 25 24 26 27 28 30 33 34 33
41 39 38 37 36 38 37 37 35 36 37 37 38 37 36 35 34 33 33 33 32 32 31 29 29 29 28 28 28 28 28 28 30 29 27 27 24 26 25 24 26 27 27 24 22 22 23 24 28 30 32 32
41 41 40 39 38 38 36 38 40 38 37 38 36 36 35 34 33 33 32 32 33 31 31 30 29 28 28 28 29 28 27 27 26 26 26 25 24 23 25 26 28 27 28 22 24 24 22 20 21 26 28 29
41 42 42 40 40 40 40 38 40 40 37 35 34 33 35 33 33 33 32 32 32 31 30 30 29 29 28 28 28 27 26 26 26 26 26 26 26 25 22 24 24 29 28 26 23 16 20 19 22 18 22 22
40 40 37 36 36 36 36 35 34 34 34 35 35 34 31 33 33 33 32 31 31 31 30 29 29 29 29 29 28 28 27 27 27 27 26 27 26 25 24 22 24 27 27 26 27 22 19 14 14 16 21 23
39 37 35 33 32 31 32 31 29 31 33 33 33 34 36 34 33 32 32 31 31 31 31 29 29 29 30 30 30 29 27 27 27 26 27 27 26 25 26 24 23 22 28 27 28 27 25 23 17 15 19 20
39 36 34 34 33 32 33 32 33 34 34 33 34 35 35 34 34 32 32 31 31 30 31 31 30 29 29 30 30 30 28 27 27 27 27 27 26 26 27 25 22 23 23 26 26 27 27 26 26 23 20 14

ECMWFFLT2_sfc_temp_063.txt.gz
Temp
54 53 53 53 53 52 52 52 52 52 52 52 52 52 51 51 51 51 51 52 53 53 53 53 53 53 53 53 53 53 53 53 53 53 53 52 52 52 52 52 52 51 51 50 50 50 49 49 47 46 44 36
54 53 53 53 52 52 52 51 52 51 51 51 51 51 50 50 50 50 51 52 52 52 52 52 52 52 52 52 53 52 52 52 52 52 52 52 52 51 51 51 51 50 50 50 49 49 48 47 46 44 43 34
49 53 53 52 52 52 51 51 51 51 51 50 50 50 50 49 49 49 49 50 50 50 51 50 50 50 51 52 52 52 52 52 52 51 51 51 51 51 50 50 50 49 49 49 49 48 47 47 45 43 38 33
44 50 53 52 52 52 51 51 50 50 50 50 50 49 49 48 45 45 43 49 45 48 49 48 47 49 50 51 52 51 51 51 51 51 51 51 51 50 50 50 49 48 48 48 48 47 47 46 44 34 32 32
45 47 52 51 52 52 51 50 50 50 50 50 49 48 48 46 41 38 39 39 39 47 41 47 47 48 50 51 52 52 52 51 51 51 51 51 50 51 50 49 48 47 47 47 47 47 46 45 36 33 31 32
45 45 50 43 42 44 47 49 50 45 42 47 40 48 43 39 40 39 37 38 44 39 41 42 47 48 49 50 51 51 51 50 50 51 51 51 51 50 50 49 37 37 43 45 46 45 45 37 30 32 32 31
45 45 44 42 42 44 49 46 46 41 43 39 37 38 37 41 38 39 40 39 42 42 46 44 47 47 48 49 50 50 50 49 49 50 50 50 50 49 49 39 33 32 29 31 44 43 36 30 30 30 31 31
44 43 43 42 42 43 43 42 43 41 40 39 38 39 37 38 37 39 36 44 45 46 39 39 44 46 46 46 47 48 45 47 47 49 49 48 48 45 39 33 31 32 30 31 30 31 30 29 31 30 31 30
43 43 42 42 42 42 41 40 41 40 40 39 39 37 40 36 38 37 37 35 35 35 34 35 35 36 36 36 35 44 35 36 36 38 33 34 38 33 34 34 33 32 32 32 33 29 30 30 30 30 32 28
45 46 41 41 42 41 41 41 40 41 40 40 39 37 38 39 37 35 37 34 34 34 34 34 34 35 34 34 34 37 37 35 34 32 34 34 34 34 33 32 32 31 35 33 30 27 28 29 28 28 29 28
44 43 42 42 41 41 40 39 40 38 38 40 37 37 38 38 35 34 34 34 33 33 34 35 33 33 34 33 34 37 36 34 33 33 33 33 34 32 32 31 30 31 30 30 30 31 29 28 28 28 28 27
43 41 42 42 44 44 42 41 39 38 38 39 37 38 38 40 35 34 34 34 33 33 32 35 34 33 33 33 33 36 37 35 33 33 33 32 31 32 31 31 31 31 30 29 29 30 31 28 28 28 27 28
43 42 42 41 41 41 45 42 40 39 39 39 38 38 37 38 35 34 35 33 33 32 33 33 34 32 32 33 33 35 34 33 33 33 32 32 31 30 30 30 31 31 32 31 32 31 31 30 29 28 28 27
41 42 41 41 41 40 43 40 40 38 37 37 37 36 37 37 36 34 33 33 32 31 32 32 32 33 33 32 33 33 33 33 32 32 31 31 31 30 30 31 32 33 32 32 32 30 30 30 30 29 28 27
43 42 42 42 40 40 41 40 40 39 39 36 37 37 36 36 37 36 34 33 32 31 32 32 32 32 32 31 31 33 32 32 32 31 30 30 30 30 31 31 31 32 31 30 30 31 31 31 31 29 29 28
43 42 42 42 41 40 40 40 38 37 38 38 36 36 36 35 35 37 33 33 32 33 32 31 31 31 32 31 31 33 33 32 33 31 31 31 31 31 31 31 30 31 30 30 31 30 29 30 30 29 29 29
43 42 42 42 41 41 41 39 39 37 37 37 37 36 36 35 35 37 35 32 33 35 31 31 31 31 32 32 33 33 33 32 32 31 30 31 31 31 30 30 30 31 31 29 29 30 30 30 29 30 30 29
42 42 42 42 40 41 39 38 38 38 37 37 37 37 36 35 35 36 33 33 32 32 31 31 31 31 31 31 31 32 33 31 31 31 31 30 29 32 32 29 29 29 28 29 28 28 29 30 29 30 29 28
44 43 42 41 41 40 39 39 38 36 37 35 36 37 34 35 35 35 33 33 32 31 31 31 30 30 30 31 32 30 31 30 31 29 29 29 29 28 27 28 29 29 28 28 28 29 30 29 29 29 29 29
44 44 42 40 42 41 36 37 38 35 36 37 34 35 35 34 34 35 33 33 32 31 30 30 30 30 31 31 31 30 29 31 30 29 29 29 28 27 27 28 27 28 27 27 28 29 28 28 30 28 28 29
40 41 41 41 40 40 36 36 36 35 36 36 36 34 34 34 35 34 33 32 32 31 31 30 30 30 30 31 29 28 28 28 30 28 29 28 29 27 26 27 26 27 27 27 27 28 27 28 29 29 30 30
41 42 41 39 37 39 37 36 36 36 35 36 34 33 34 33 34 35 32 32 32 30 31 30 29 30 30 30 28 28 28 28 28 28 27 27 27 28 26 26 26 26 26 27 27 27 28 28 29 29 29 30
40 38 38 37 37 37 36 34 34 34 34 33 34 33 34 34 34 35 32 32 32 30 30 30 29 29 29 29 27 28 28 27 28 28 27 26 27 27 27 26 26 26 26 27 27 27 27 28 28 29 30 31
37 36 36 36 35 35 36 34 34 34 34 35 33 35 34 34 33 33 33 31 31 31 31 29 29 29 28 28 28 27 27 27 26 26 26 26 26 26 27 29 27 27 26 25 25 27 27 28 28 28 30 30
36 36 35 32 34 34 35 36 35 36 35 34 34 34 34 34 34 32 32 33 31 30 32 30 28 28 28 27 28 27 27 27 27 27 26 27 28 27 25 25 26 25 25 24 23 25 24 26 27 28 30 29
37 36 36 36 36 34 33 33 33 34 35 34 36 34 34 33 33 32 32 33 31 31 29 29 28 28 28 27 27 28 28 27 28 28 27 27 25 27 26 25 26 26 25 22 21 21 22 24 26 27 28 27
37 36 36 37 35 34 32 33 35 34 35 34 34 34 34 33 32 32 31 31 32 30 29 29 29 28 28 27 28 27 26 26 26 26 26 26 25 24 26 26 27 25 26 20 24 23 22 18 21 25 24 24
37 36 37 35 34 34 33 36 37 35 34 32 30 31 32 32 31 31 31 31 30 31 29 29 28 28 27 27 27 27 26 26 26 26 26 25 26 26 22 24 25 29 26 24 23 15 19 16 21 17 20 22
35 35 34 32 33 31 32 32 31 30 31 32 33 33 29 32 32 31 31 30 30 31 30 29 28 28 28 27 27 27 26 27 27 28 27 27 26 26 24 23 24 26 28 26 27 22 18 12 13 14 19 22
34 35 34 32 32 31 31 29 28 30 31 31 31 32 33 31 31 31 31 30 30 30 31 29 28 28 28 27 27 27 27 28 28 28 28 28 28 26 27 25 23 23 29 29 27 27 27 25 17 15 17 20
34 33 32 32 33 32 32 30 30 30 32 31 32 32 31 32 31 30 31 31 30 30 30 30 29 28 28 28 28 29 27 27 27 28 29 30 28 27 27 27 23 23 24 28 26 27 26 26 26 23 20 13

ECMWFFLT2_sfc_temp_066.txt.gz
Temp
56 56 55 55 55 55 54 54 54 54 54 53 53 53 53 52 52 52 52 53 54 54 54 53 53 53 53 54 54 54 54 53 54 54 53 53 53 53 52 52 52 51 51 51 51 50 49 48 47 46 43 33
56 56 55 55 55 55 54 54 54 54 53 53 53 52 52 51 50 51 51 52 52 52 52 52 52 52 52 53 53 53 53 53 53 53 53 53 53 52 52 52 52 51 51 51 50 50 49 48 47 45 43 32
50 56 55 55 54 54 54 54 54 53 53 52 52 51 51 50 50 49 50 50 50 50 51 50 50 50 52 52 53 54 53 53 53 53 53 53 53 52 52 52 51 50 50 50 50 49 48 48 46 44 37 31
44 51 55 54 54 54 54 53 53 53 52 52 51 51 50 50 46 46 43 49 45 48 49 48 47 49 51 52 53 53 53 53 53 52 52 53 52 52 52 52 50 49 49 49 49 48 48 47 45 34 29 30
43 45 53 53 54 54 54 53 53 52 52 52 50 49 49 48 42 37 37 37 38 47 41 46 47 48 50 51 52 52 52 52 52 52 52 52 52 52 51 50 47 47 48 48 48 48 47 47 36 31 30 30
43 43 50 45 43 44 47 51 51 47 43 48 40 48 45 39 39 38 34 35 43 39 41 41 47 48 49 50 51 51 51 51 51 51 51 51 51 51 50 48 37 35 42 46 46 46 47 39 31 30 30 29
43 43 43 43 43 43 48 46 46 42 43 39 37 37 36 40 37 36 36 38 40 41 45 44 47 47 48 49 49 48 49 48 49 50 50 50 49 49 48 39 32 30 27 29 43 43 36 31 30 30 30 30
43 41 42 42 41 41 41 41 42 40 39 39 37 37 37 37 37 37 36 44 45 45 38 38 43 46 46 46 46 46 43 44 45 48 48 47 48 43 37 32 30 30 29 30 29 29 29 28 29 30 30 29
42 41 40 40 40 40 38 39 39 39 38 38 37 36 38 36 36 36 35 33 34 34 33 32 33 35 35 35 33 41 33 35 35 37 31 31 36 30 33 32 32 30 30 32 31 26 28 28 29 29 30 28
44 43 40 40 40 39 39 38 38 39 38 38 38 36 37 38 36 36 36 33 33 33 32 33 32 33 33 32 33 35 34 32 33 32 31 32 32 32 30 30 29 29 32 30 28 26 25 25 26 27 27 28
43 42 41 40 39 39 39 38 38 38 37 38 37 36 37 37 35 34 33 33 32 32 32 33 32 32 32 32 32 35 34 33 33 33 32 32 32 29 29 29 28 28 28 28 28 29 28 25 26 27 27 27
41 40 41 41 42 42 42 39 38 38 38 38 37 37 37 39 35 33 32 33 32 33 30 33 33 32 31 31 31 34 35 33 31 31 31 31 29 30 29 28 28 29 29 29 29 29 29 29 28 27 27 27
42 40 41 39 39 40 44 41 39 39 38 37 36 36 37 37 35 33 34 33 33 32 32 32 32 31 31 32 31 32 32 32 32 32 30 30 30 28 28 28 29 29 30 29 30 29 29 29 29 28 27 27
40 41 40 40 40 40 42 40 40 37 36 37 35 35 36 36 36 34 33 33 32 31 32 31 31 32 32 31 31 31 31 31 30 31 29 29 29 29 29 29 30 31 30 29 29 28 29 29 29 27 27 27
41 40 40 41 39 39 40 40 39 38 38 35 35 37 36 35 36 36 33 32 32 31 31 31 31 31 31 30 30 31 31 31 30 30 30 31 29 30 29 29 29 29 29 28 29 29 29 29 29 28 28 27
40 41 41 40 39 39 39 38 37 36 37 38 36 35 35 34 34 37 33 33 32 32 31 30 30 30 30 31 30 31 30 30 31 30 31 29 29 29 29 29 29 29 28 28 28 28 28 28 28 27 28 27
39 39 39 40 39 39 39 38 38 36 36 36 36 35 35 34 34 36 35 33 33 35 31 31 30 29 31 31 31 31 30 31 31 30 29 30 30 28 28 28 28 29 28 27 28 28 28 28 28 28 27 28
39 40 39 40 38 39 38 36 35 37 37 36 36 35 34 34 34 35 33 33 32 31 31 31 30 30 30 30 29 30 30 29 28 29 29 29 29 31 31 28 28 27 27 27 27 27 27 28 27 27 28 27
40 39 39 38 38 38 36 37 36 35 36 34 35 35 34 34 34 35 33 33 32 31 30 30 30 30 31 30 29 28 28 28 29 28 28 28 28 28 26 26 28 28 27 27 27 27 28 27 28 27 27 27
39 39 38 37 40 38 34 35 36 34 35 35 32 34 34 33 34 35 33 33 31 31 30 30 30 31 30 29 28 28 27 29 28 28 28 29 28 27 27 28 27 27 26 26 27 27 27 26 28 26 26 27
39 39 39 38 37 36 34 34 34 34 34 33 34 32 33 33 34 34 33 32 31 31 31 30 30 31 30 29 28 27 27 27 28 28 29 28 29 27 26 26 26 27 26 26 27 27 26 26 27 27 27 28
38 38 38 36 34 36 35 34 34 34 32 33 32 32 32 33 33 34 32 31 31 30 31 31 30 30 29 29 27 27 27 27 28 27 27 27 27 27 26 26 26 26 27 26 26 27 27 27 27 27 27 28
37 37 37 35 35 34 34 33 31 31 31 31 32 31 33 32 33 33 32 31 31 30 30 30 29 29 29 28 27 27 27 27 28 28 27 26 27 27 25 25 26 26 26 26 26 26 27 28 27 28 28 29
35 34 35 35 36 37 36 36 34 33 31 31 30 33 32 32 32 31 33 31 30 29 30 29 29 29 28 27 27 26 26 27 26 26 26 26 26 26 27 27 26 26 25 26 25 26 27 27 27 27 28 28
34 34 33 30 33 32 33 35 35 35 34 32 31 32 31 32 32 31 31 32 30 29 31 30 29 28 28 27 27 26 27 28 27 27 26 26 27 27 25 25 25 25 25 23 23 25 25 25 27 28 29 28
35 34 36 35 34 33 31 33 32 33 35 35 35 32 31 32 32 31 31 33 31 31 29 29 29 28 28 27 26 27 27 27 28 28 26 26 24 25 25 24 26 25 24 22 20 21 22 24 26 27 27 26
36 32 32 33 33 33 32 31 34 33 34 33 33 33 32 32 31 31 31 31 32 31 30 29 29 29 28 27 27 26 26 26 25 26 25 25 24 24 24 25 26 24 26 21 22 22 20 18 21 25 24 24
35 35 35 32 34 33 33 37 35 32 31 30 30 31 33 31 31 31 31 31 30 31 30 29 29 29 27 27 27 26 26 26 25 25 25 24 25 24 22 24 23 26 24 24 22 14 17 15 19 16 21 22
34 34 33 33 32 30 31 30 31 30 32 33 33 33 31 32 32 31 30 31 30 30 30 30 29 28 28 27 27 26 25 26 26 26 26 26 25 24 23 23 24 25 24 23 26 22 18 13 12 13 20 22
34 35 33 33 32 33 33 31 29 32 33 34 33 33 34 32 31 31 30 30 30 29 30 29 29 28 28 27 27 26 26 26 26 25 25 26 25 25 25 24 23 22 26 25 25 25 25 24 17 15 17 21
34 34 34 34 34 33 32 32 32 33 34 33 34 33 32 33 32 31 30 31 30 30 30 30 29 28 28 28 28 28 26 25 26 27 26 27 25 25 26 25 21 22 23 24 25 25 25 25 26 25 21 15